Wetterdaten: aktuell Sonntag, 13.06.2021 20:30
Datum Zeit Temp. Aussen Temp. o. S. Temp +5cm Feuchte Auss Luftdruck Regen Sonnenschein Regendauer Solar Windben Empfang
13.06.2021 20:30 22,5 C 21,7 C 18,9 C 55 % 1025,5 hPa 0,0 l/m 0 min 0 min 33 W/m 3,2 km/h (1 Bft) 97,87 %
13.06.2021 20:28 22,6 C 21,7 C 18,9 C 57 % 1025,5 hPa 0,0 l/m 0 min 0 min 34 W/m 3,2 km/h (1 Bft) 97,87 %
13.06.2021 20:26 22,7 C 21,7 C 18,9 C 56 % 1025,5 hPa 0,0 l/m 0 min 0 min 35 W/m 3,2 km/h (1 Bft) 97,87 %
13.06.2021 20:24 22,8 C 21,7 C 19,5 C 56 % 1025,5 hPa 0,0 l/m 0 min 0 min 35 W/m 3,2 km/h (1 Bft) 97,87 %
13.06.2021 20:22 22,8 C 21,7 C 19,5 C 56 % 1025,6 hPa 0,0 l/m 0 min 0 min 37 W/m 3,2 km/h (1 Bft) 95,65 %
13.06.2021 20:20 22,9 C 21,7 C 19,5 C 53 % 1025,6 hPa 0,0 l/m 0 min 0 min 37 W/m 6,4 km/h (2 Bft) 97,87 %
13.06.2021 20:18 23,0 C 22,2 C 19,5 C 54 % 1025,5 hPa 0,0 l/m 0 min 0 min 39 W/m 3,2 km/h (1 Bft) 95,74 %
13.06.2021 20:16 23,0 C 22,2 C 19,5 C 53 % 1025,5 hPa 0,0 l/m 0 min 0 min 39 W/m 3,2 km/h (1 Bft) 97,87 %
13.06.2021 20:14 23,1 C 22,2 C 19,5 C 53 % 1025,5 hPa 0,0 l/m 0 min 0 min 39 W/m 3,2 km/h (1 Bft) 97,87 %
13.06.2021 20:12 23,1 C 22,2 C 19,5 C 53 % 1025,5 hPa 0,0 l/m 0 min 0 min 40 W/m 6,4 km/h (2 Bft) 97,87 %
13.06.2021 20:10 23,2 C 22,2 C 19,5 C 53 % 1025,6 hPa 0,0 l/m 0 min 0 min 40 W/m 3,2 km/h (1 Bft) 97,83 %
13.06.2021 20:08 23,3 C 22,2 C 20,0 C 51 % 1025,5 hPa 0,0 l/m 0 min 0 min 40 W/m 3,2 km/h (1 Bft) 95,74 %
13.06.2021 20:06 23,4 C 22,2 C 19,5 C 51 % 1025,6 hPa 0,0 l/m 0 min 0 min 42 W/m 6,4 km/h (2 Bft) 95,74 %
13.06.2021 20:04 23,5 C 22,8 C 19,5 C 51 % 1025,6 hPa 0,0 l/m 0 min 0 min 42 W/m 3,2 km/h (1 Bft) 95,74 %
13.06.2021 20:02 23,6 C 22,8 C 20,0 C 52 % 1025,6 hPa 0,0 l/m 0 min 0 min 49 W/m 3,2 km/h (1 Bft) 95,74 %
13.06.2021 20:00 23,6 C 22,8 C 20,0 C 51 % 1025,6 hPa 0,0 l/m 0 min 0 min 96 W/m 3,2 km/h (1 Bft) 93,48 %
13.06.2021 19:58 23,7 C 22,8 C 20,0 C 50 % 1025,7 hPa 0,0 l/m 2 min 0 min 174 W/m 3,2 km/h (1 Bft) 95,74 %
13.06.2021 19:56 23,8 C 22,8 C 20,0 C 51 % 1025,7 hPa 0,0 l/m 2 min 0 min 189 W/m 3,2 km/h (1 Bft) 95,74 %
13.06.2021 19:54 23,8 C 22,8 C 20,0 C 50 % 1025,7 hPa 0,0 l/m 2 min 0 min 196 W/m 6,4 km/h (2 Bft) 95,74 %
13.06.2021 19:52 23,8 C 22,8 C 20,0 C 50 % 1025,7 hPa 0,0 l/m 2 min 0 min 203 W/m 6,4 km/h (2 Bft) 93,62 %
13.06.2021 19:50 23,9 C 22,8 C 20,0 C 49 % 1025,7 hPa 0,0 l/m 2 min 0 min 210 W/m 6,4 km/h (2 Bft) 93,62 %
13.06.2021 19:48 23,9 C 22,8 C 20,0 C 50 % 1025,7 hPa 0,0 l/m 2 min 0 min 216 W/m 9,7 km/h (2 Bft) 93,62 %
13.06.2021 19:46 23,9 C 23,3 C 20,6 C 49 % 1025,7 hPa 0,0 l/m 2 min 0 min 224 W/m 6,4 km/h (2 Bft) 97,83 %
13.06.2021 19:44 24,0 C 23,3 C 20,6 C 50 % 1025,8 hPa 0,0 l/m 2 min 0 min 230 W/m 6,4 km/h (2 Bft) 97,87 %
13.06.2021 19:42 24,0 C 23,3 C 20,6 C 48 % 1025,8 hPa 0,0 l/m 2 min 0 min 236 W/m 3,2 km/h (1 Bft) 97,87 %
13.06.2021 19:40 24,1 C 23,3 C 20,6 C 48 % 1025,8 hPa 0,0 l/m 2 min 0 min 243 W/m 6,4 km/h (2 Bft) 95,74 %
13.06.2021 19:38 24,3 C 23,9 C 20,6 C 49 % 1025,8 hPa 0,0 l/m 2 min 0 min 250 W/m 6,4 km/h (2 Bft) 97,87 %
13.06.2021 19:36 24,4 C 23,9 C 20,6 C 49 % 1025,8 hPa 0,0 l/m 2 min 0 min 257 W/m 3,2 km/h (1 Bft) 93,62 %
13.06.2021 19:34 24,5 C 23,9 C 20,6 C 48 % 1025,8 hPa 0,0 l/m 2 min 0 min 264 W/m 6,4 km/h (2 Bft) 93,48 %
13.06.2021 19:32 24,8 C 24,4 C 20,6 C 47 % 1025,8 hPa 0,0 l/m 2 min 0 min 270 W/m 6,4 km/h (2 Bft) 93,62 %
13.06.2021 19:30 25,0 C 24,4 C 20,6 C 49 % 1025,9 hPa 0,0 l/m 2 min 0 min 276 W/m 6,4 km/h (2 Bft) 95,74 %
13.06.2021 19:28 25,0 C 24,4 C 21,1 C 50 % 1025,9 hPa 0,0 l/m 2 min 0 min 283 W/m 3,2 km/h (1 Bft) 95,74 %
13.06.2021 19:26 25,1 C 23,9 C 21,1 C 48 % 1025,9 hPa 0,0 l/m 2 min 0 min 289 W/m 3,2 km/h (1 Bft) 95,74 %
13.06.2021 19:24 25,1 C 23,9 C 21,1 C 47 % 1025,9 hPa 0,0 l/m 2 min 0 min 295 W/m 3,2 km/h (1 Bft) 95,65 %
13.06.2021 19:22 25,1 C 24,4 C 21,1 C 47 % 1025,9 hPa 0,0 l/m 2 min 0 min 304 W/m 6,4 km/h (2 Bft) 93,62 %
13.06.2021 19:20 25,3 C 25,0 C 21,7 C 48 % 1026,0 hPa 0,0 l/m 2 min 0 min 310 W/m 6,4 km/h (2 Bft) 95,74 %
13.06.2021 19:18 25,4 C 26,1 C 21,7 C 49 % 1026,0 hPa 0,0 l/m 2 min 0 min 315 W/m 6,4 km/h (2 Bft) 95,74 %
13.06.2021 19:16 25,3 C 26,1 C 22,3 C 48 % 1025,9 hPa 0,0 l/m 2 min 0 min 322 W/m 6,4 km/h (2 Bft) 93,62 %
13.06.2021 19:14 25,3 C 26,7 C 22,3 C 50 % 1026,0 hPa 0,0 l/m 2 min 0 min 328 W/m 3,2 km/h (1 Bft) 95,74 %
13.06.2021 19:12 25,1 C 27,2 C 22,3 C 50 % 1026,0 hPa 0,0 l/m 2 min 0 min 335 W/m 6,4 km/h (2 Bft) 95,65 %
13.06.2021 19:10 25,1 C 27,8 C 22,8 C 49 % 1026,0 hPa 0,0 l/m 2 min 0 min 340 W/m 6,4 km/h (2 Bft) 95,74 %
13.06.2021 19:08 25,1 C 28,3 C 22,8 C 48 % 1026,0 hPa 0,0 l/m 2 min 0 min 346 W/m 6,4 km/h (2 Bft) 95,74 %
13.06.2021 19:06 25,1 C 28,9 C 22,8 C 49 % 1026,0 hPa 0,0 l/m 2 min 0 min 352 W/m 6,4 km/h (2 Bft) 93,62 %
13.06.2021 19:04 25,2 C 29,4 C 22,8 C 50 % 1026,0 hPa 0,0 l/m 2 min 0 min 359 W/m 6,4 km/h (2 Bft) 95,74 %
13.06.2021 19:02 25,3 C 29,4 C 22,8 C 48 % 1025,9 hPa 0,0 l/m 2 min 0 min 364 W/m 6,4 km/h (2 Bft) 97,87 %
13.06.2021 19:00 25,3 C 30,0 C 22,8 C 48 % 1026,0 hPa 0,0 l/m 2 min 0 min 369 W/m 3,2 km/h (1 Bft) 91,30 %
13.06.2021 18:58 25,4 C 30,0 C 22,8 C 48 % 1026,0 hPa 0,0 l/m 2 min 0 min 375 W/m 3,2 km/h (1 Bft) 97,87 %
13.06.2021 18:56 25,4 C 30,0 C 22,8 C 51 % 1025,9 hPa 0,0 l/m 2 min 0 min 380 W/m 3,2 km/h (1 Bft) 97,87 %
13.06.2021 18:54 25,3 C 29,4 C 22,8 C 49 % 1026,0 hPa 0,0 l/m 2 min 0 min 385 W/m 6,4 km/h (2 Bft) 97,87 %
13.06.2021 18:52 25,3 C 29,4 C 22,8 C 49 % 1025,9 hPa 0,0 l/m 2 min 0 min 392 W/m 3,2 km/h (1 Bft) 100,00 %
13.06.2021 18:50 25,3 C 29,4 C 22,8 C 48 % 1025,9 hPa 0,0 l/m 2 min 0 min 399 W/m 6,4 km/h (2 Bft) 100,00 %
13.06.2021 18:48 25,4 C 30,0 C 22,8 C 49 % 1026,0 hPa 0,0 l/m 2 min 0 min 404 W/m 3,2 km/h (1 Bft) 100,00 %
13.06.2021 18:46 25,4 C 30,0 C 23,4 C 49 % 1026,0 hPa 0,0 l/m 2 min 0 min 410 W/m 3,2 km/h (1 Bft) 97,87 %
13.06.2021 18:44 25,3 C 30,6 C 23,9 C 50 % 1026,0 hPa 0,0 l/m 2 min 0 min 417 W/m 12,9 km/h (3 Bft) 97,87 %
13.06.2021 18:42 25,2 C 30,6 C 23,4 C 51 % 1025,9 hPa 0,0 l/m 2 min 0 min 423 W/m 9,7 km/h (2 Bft) 100,00 %
13.06.2021 18:40 25,1 C 30,0 C 22,8 C 50 % 1025,9 hPa 0,0 l/m 2 min 0 min 427 W/m 9,7 km/h (2 Bft) 100,00 %
13.06.2021 18:38 25,0 C 29,4 C 22,3 C 51 % 1026,0 hPa 0,0 l/m 2 min 0 min 432 W/m 9,7 km/h (2 Bft) 100,00 %
13.06.2021 18:36 25,0 C 28,3 C 21,7 C 49 % 1026,0 hPa 0,0 l/m 2 min 0 min 438 W/m 6,4 km/h (2 Bft) 98,15 %
13.06.2021 18:34 25,1 C 29,4 C 22,3 C 48 % 1026,0 hPa 0,0 l/m 2 min 0 min 444 W/m 12,9 km/h (3 Bft) 100,00 %
13.06.2021 18:32 25,4 C 29,4 C 22,3 C 48 % 1026,0 hPa 0,0 l/m 2 min 0 min 452 W/m 12,9 km/h (3 Bft) 100,00 %
13.06.2021 18:30 25,6 C 30,0 C 22,3 C 48 % 1026,1 hPa 0,0 l/m 2 min 0 min 459 W/m 9,7 km/h (2 Bft) 100,00 %
13.06.2021 18:28 25,7 C 30,6 C 22,3 C 47 % 1026,1 hPa 0,0 l/m 2 min 0 min 462 W/m 6,4 km/h (2 Bft) 100,00 %
13.06.2021 18:26 25,8 C 31,7 C 22,8 C 49 % 1026,1 hPa 0,0 l/m 2 min 0 min 467 W/m 3,2 km/h (1 Bft) 100,00 %
13.06.2021 18:24 25,7 C 31,7 C 22,8 C 49 % 1026,1 hPa 0,0 l/m 2 min 0 min 473 W/m 9,7 km/h (2 Bft) 100,00 %
13.06.2021 18:22 25,6 C 31,1 C 22,8 C 49 % 1026,1 hPa 0,0 l/m 2 min 0 min 478 W/m 6,4 km/h (2 Bft) 100,00 %
13.06.2021 18:20 25,5 C 30,6 C 22,3 C 49 % 1026,1 hPa 0,0 l/m 2 min 0 min 482 W/m 6,4 km/h (2 Bft) 97,87 %
13.06.2021 18:18 25,5 C 30,0 C 22,3 C 49 % 1026,1 hPa 0,0 l/m 2 min 0 min 487 W/m 3,2 km/h (1 Bft) 100,00 %
13.06.2021 18:16 25,5 C 30,0 C 22,3 C 48 % 1026,2 hPa 0,0 l/m 2 min 0 min 492 W/m 6,4 km/h (2 Bft) 100,00 %
13.06.2021 18:14 25,6 C 30,0 C 22,3 C 48 % 1026,2 hPa 0,0 l/m 2 min 0 min 498 W/m 6,4 km/h (2 Bft) 100,00 %
13.06.2021 18:12 25,8 C 30,0 C 22,3 C 48 % 1026,1 hPa 0,0 l/m 2 min 0 min 504 W/m 6,4 km/h (2 Bft) 95,74 %
13.06.2021 18:10 25,9 C 30,0 C 22,8 C 48 % 1026,2 hPa 0,0 l/m 2 min 0 min 512 W/m 6,4 km/h (2 Bft) 100,00 %
13.06.2021 18:08 26,0 C 30,6 C 22,8 C 48 % 1026,2 hPa 0,0 l/m 4 min 0 min 520 W/m 9,7 km/h (2 Bft) 100,00 %
13.06.2021 18:04 25,9 C 30,6 C 22,8 C 48 % 1026,2 hPa 0,0 l/m 2 min 0 min 528 W/m 9,7 km/h (2 Bft) 100,00 %
13.06.2021 18:02 25,8 C 30,6 C 22,8 C 48 % 1026,2 hPa 0,0 l/m 2 min 0 min 535 W/m 3,2 km/h (1 Bft) 100,00 %
13.06.2021 18:00 25,8 C 30,6 C 23,4 C 48 % 1026,2 hPa 0,0 l/m 2 min 0 min 541 W/m 6,4 km/h (2 Bft) 100,00 %
13.06.2021 17:58 25,7 C 31,1 C 22,8 C 48 % 1026,2 hPa 0,0 l/m 2 min 0 min 548 W/m 9,7 km/h (2 Bft) 100,00 %
13.06.2021 17:56 25,7 C 30,6 C 22,8 C 48 % 1026,2 hPa 0,0 l/m 2 min 0 min 554 W/m 6,4 km/h (2 Bft) 100,00 %
13.06.2021 17:54 25,6 C 31,1 C 22,8 C 49 % 1026,2 hPa 0,0 l/m 2 min 0 min 561 W/m 3,2 km/h (1 Bft) 100,00 %
13.06.2021 17:52 25,7 C 31,1 C 22,8 C 48 % 1026,2 hPa 0,0 l/m 2 min 0 min 567 W/m 9,7 km/h (2 Bft) 97,87 %
13.06.2021 17:50 25,6 C 30,6 C 22,3 C 47 % 1026,3 hPa 0,0 l/m 2 min 0 min 571 W/m 6,4 km/h (2 Bft) 100,00 %
13.06.2021 17:48 25,5 C 30,6 C 22,3 C 47 % 1026,3 hPa 0,0 l/m 2 min 0 min 577 W/m 3,2 km/h (1 Bft) 100,00 %
13.06.2021 17:46 25,6 C 30,0 C 22,3 C 46 % 1026,3 hPa 0,0 l/m 2 min 0 min 581 W/m 6,4 km/h (2 Bft) 97,56 %
13.06.2021 17:44 25,6 C 30,6 C 22,8 C 47 % 1026,4 hPa 0,0 l/m 2 min 0 min 586 W/m 6,4 km/h (2 Bft) 100,00 %
13.06.2021 17:42 25,5 C 30,0 C 22,3 C 48 % 1026,4 hPa 0,0 l/m 2 min 0 min 591 W/m 12,9 km/h (3 Bft) 100,00 %
13.06.2021 17:40 25,5 C 30,0 C 22,3 C 47 % 1026,4 hPa 0,0 l/m 2 min 0 min 596 W/m 6,4 km/h (2 Bft) 97,87 %
13.06.2021 17:38 25,4 C 30,0 C 22,3 C 47 % 1026,4 hPa 0,0 l/m 2 min 0 min 601 W/m 3,2 km/h (1 Bft) 100,00 %
13.06.2021 17:36 25,4 C 30,0 C 22,3 C 46 % 1026,4 hPa 0,0 l/m 2 min 0 min 606 W/m 9,7 km/h (2 Bft) 95,74 %
13.06.2021 17:34 25,5 C 30,0 C 22,3 C 46 % 1026,4 hPa 0,0 l/m 2 min 0 min 612 W/m 12,9 km/h (3 Bft) 100,00 %
13.06.2021 17:32 25,8 C 30,0 C 22,3 C 45 % 1026,5 hPa 0,0 l/m 2 min 0 min 618 W/m 6,4 km/h (2 Bft) 100,00 %
13.06.2021 17:30 25,9 C 31,1 C 23,4 C 46 % 1026,5 hPa 0,0 l/m 2 min 0 min 622 W/m 6,4 km/h (2 Bft) 100,00 %
13.06.2021 17:28 25,8 C 31,7 C 23,4 C 46 % 1026,5 hPa 0,0 l/m 2 min 0 min 626 W/m 6,4 km/h (2 Bft) 100,00 %
13.06.2021 17:26 25,7 C 31,7 C 22,8 C 46 % 1026,5 hPa 0,0 l/m 2 min 0 min 631 W/m 6,4 km/h (2 Bft) 97,83 %
13.06.2021 17:24 25,7 C 30,6 C 22,8 C 46 % 1026,6 hPa 0,0 l/m 2 min 0 min 638 W/m 6,4 km/h (2 Bft) 98,11 %
13.06.2021 17:22 25,7 C 30,6 C 22,8 C 45 % 1026,6 hPa 0,0 l/m 2 min 0 min 644 W/m 6,4 km/h (2 Bft) 97,56 %
13.06.2021 17:20 25,7 C 31,1 C 23,4 C 48 % 1026,6 hPa 0,0 l/m 2 min 0 min 648 W/m 12,9 km/h (3 Bft) 97,87 %
13.06.2021 17:18 25,6 C 31,1 C 22,8 C 47 % 1026,6 hPa 0,0 l/m 2 min 0 min 651 W/m 9,7 km/h (2 Bft) 98,11 %
13.06.2021 17:16 25,5 C 30,6 C 22,8 C 47 % 1026,6 hPa 0,0 l/m 2 min 0 min 657 W/m 12,9 km/h (3 Bft) 97,56 %
13.06.2021 17:14 25,4 C 31,1 C 22,8 C 47 % 1026,6 hPa 0,0 l/m 2 min 0 min 664 W/m 12,9 km/h (3 Bft) 97,83 %
13.06.2021 17:12 25,4 C 31,1 C 22,8 C 47 % 1026,6 hPa 0,0 l/m 2 min 0 min 668 W/m 9,7 km/h (2 Bft) 98,11 %
13.06.2021 17:10 25,3 C 30,0 C 22,3 C 47 % 1026,7 hPa 0,0 l/m 2 min 0 min 673 W/m 6,4 km/h (2 Bft) 97,14 %
13.06.2021 17:08 25,3 C 30,0 C 22,3 C 47 % 1026,7 hPa 0,0 l/m 2 min 0 min 679 W/m 9,7 km/h (2 Bft) 97,87 %
13.06.2021 17:06 25,3 C 30,0 C 22,3 C 48 % 1026,7 hPa 0,0 l/m 2 min 0 min 686 W/m 9,7 km/h (2 Bft) 98,31 %
13.06.2021 17:04 25,2 C 30,0 C 22,3 C 48 % 1026,7 hPa 0,0 l/m 2 min 0 min 690 W/m 9,7 km/h (2 Bft) 95,65 %
13.06.2021 17:02 25,1 C 29,4 C 21,7 C 47 % 1026,7 hPa 0,0 l/m 2 min 0 min 694 W/m 6,4 km/h (2 Bft) 94,44 %
13.06.2021 17:00 25,1 C 30,0 C 21,7 C 48 % 1026,7 hPa 0,0 l/m 2 min 0 min 700 W/m 12,9 km/h (3 Bft) 95,65 %
13.06.2021 16:58 25,1 C 30,0 C 22,3 C 48 % 1026,7 hPa 0,0 l/m 2 min 0 min 702 W/m 6,4 km/h (2 Bft) 93,62 %
13.06.2021 16:56 25,1 C 30,0 C 22,3 C 48 % 1026,7 hPa 0,0 l/m 2 min 0 min 708 W/m 6,4 km/h (2 Bft) 95,74 %
13.06.2021 16:54 25,3 C 30,6 C 22,3 C 46 % 1026,8 hPa 0,0 l/m 2 min 0 min 713 W/m 6,4 km/h (2 Bft) 96,61 %
13.06.2021 16:52 25,4 C 31,7 C 22,8 C 46 % 1026,8 hPa 0,0 l/m 2 min 0 min 717 W/m 12,9 km/h (3 Bft) 94,29 %
13.06.2021 16:50 25,4 C 31,7 C 22,8 C 46 % 1026,8 hPa 0,0 l/m 2 min 0 min 720 W/m 6,4 km/h (2 Bft) 95,74 %
13.06.2021 16:48 25,3 C 31,1 C 22,8 C 47 % 1026,9 hPa 0,0 l/m 2 min 0 min 726 W/m 6,4 km/h (2 Bft) 95,65 %
13.06.2021 16:46 25,1 C 31,1 C 22,8 C 49 % 1026,9 hPa 0,0 l/m 2 min 0 min 732 W/m 9,7 km/h (2 Bft) 95,74 %
13.06.2021 16:44 25,0 C 30,0 C 22,3 C 50 % 1026,9 hPa 0,0 l/m 2 min 0 min 735 W/m 9,7 km/h (2 Bft) 93,22 %
13.06.2021 16:42 25,0 C 29,4 C 21,7 C 46 % 1026,9 hPa 0,0 l/m 2 min 0 min 739 W/m 12,9 km/h (3 Bft) 93,62 %
13.06.2021 16:40 25,1 C 29,4 C 21,7 C 46 % 1027,0 hPa 0,0 l/m 2 min 0 min 743 W/m 16,1 km/h (3 Bft) 94,29 %
13.06.2021 16:38 25,1 C 30,0 C 21,7 C 47 % 1026,9 hPa 0,0 l/m 2 min 0 min 747 W/m 6,4 km/h (2 Bft) 93,62 %
13.06.2021 16:36 25,1 C 29,4 C 21,7 C 46 % 1027,0 hPa 0,0 l/m 2 min 0 min 752 W/m 6,4 km/h (2 Bft) 93,48 %
13.06.2021 16:34 25,0 C 30,0 C 22,3 C 47 % 1026,9 hPa 0,0 l/m 2 min 0 min 758 W/m 9,7 km/h (2 Bft) 91,53 %
13.06.2021 16:32 25,0 C 30,0 C 21,7 C 47 % 1026,9 hPa 0,0 l/m 2 min 0 min 764 W/m 9,7 km/h (2 Bft) 97,14 %
13.06.2021 16:30 24,9 C 29,4 C 21,7 C 46 % 1026,9 hPa 0,0 l/m 2 min 0 min 768 W/m 6,4 km/h (2 Bft) 87,23 %
13.06.2021 16:28 24,9 C 30,0 C 21,7 C 46 % 1027,0 hPa 0,0 l/m 2 min 0 min 770 W/m 9,7 km/h (2 Bft) 95,74 %
13.06.2021 16:26 24,8 C 30,0 C 21,7 C 47 % 1026,9 hPa 0,0 l/m 2 min 0 min 790 W/m 9,7 km/h (2 Bft) 93,62 %
13.06.2021 16:24 24,8 C 30,0 C 21,7 C 47 % 1027,0 hPa 0,0 l/m 2 min 0 min 777 W/m 9,7 km/h (2 Bft) 95,65 %
13.06.2021 16:22 24,8 C 29,4 C 21,7 C 47 % 1027,0 hPa 0,0 l/m 2 min 0 min 780 W/m 6,4 km/h (2 Bft) 97,87 %
13.06.2021 16:20 24,8 C 28,9 C 21,7 C 47 % 1027,0 hPa 0,0 l/m 2 min 0 min 788 W/m 6,4 km/h (2 Bft) 97,87 %
13.06.2021 16:18 24,8 C 28,3 C 21,7 C 47 % 1027,1 hPa 0,0 l/m 2 min 0 min 792 W/m 9,7 km/h (2 Bft) 97,87 %
13.06.2021 16:16 24,8 C 28,3 C 21,7 C 47 % 1027,1 hPa 0,0 l/m 2 min 0 min 796 W/m 12,9 km/h (3 Bft) 97,87 %
13.06.2021 16:14 24,8 C 28,9 C 21,7 C 47 % 1027,1 hPa 0,0 l/m 2 min 0 min 800 W/m 12,9 km/h (3 Bft) 97,87 %
13.06.2021 16:12 24,8 C 28,3 C 21,7 C 46 % 1027,1 hPa 0,0 l/m 2 min 0 min 805 W/m 9,7 km/h (2 Bft) 97,83 %
13.06.2021 16:10 24,8 C 28,9 C 21,7 C 47 % 1027,1 hPa 0,0 l/m 2 min 0 min 807 W/m 6,4 km/h (2 Bft) 97,87 %
13.06.2021 16:08 24,8 C 29,4 C 22,3 C 47 % 1027,2 hPa 0,0 l/m 2 min 0 min 809 W/m 9,7 km/h (2 Bft) 97,87 %
13.06.2021 16:06 24,6 C 29,4 C 22,3 C 48 % 1027,1 hPa 0,0 l/m 2 min 0 min 813 W/m 6,4 km/h (2 Bft) 97,87 %
13.06.2021 16:04 24,5 C 28,3 C 21,7 C 48 % 1027,1 hPa 0,0 l/m 2 min 0 min 815 W/m 6,4 km/h (2 Bft) 95,74 %
13.06.2021 16:02 24,4 C 27,2 C 21,1 C 48 % 1027,2 hPa 0,0 l/m 2 min 0 min 823 W/m 16,1 km/h (3 Bft) 93,48 %
13.06.2021 16:00 24,5 C 27,2 C 21,1 C 47 % 1027,2 hPa 0,0 l/m 2 min 0 min 829 W/m 12,9 km/h (3 Bft) 97,87 %
13.06.2021 15:58 24,6 C 27,2 C 21,7 C 48 % 1027,2 hPa 0,0 l/m 2 min 0 min 832 W/m 12,9 km/h (3 Bft) 95,74 %
13.06.2021 15:56 24,5 C 27,2 C 21,1 C 47 % 1027,2 hPa 0,0 l/m 2 min 0 min 837 W/m 6,4 km/h (2 Bft) 95,74 %
13.06.2021 15:54 24,5 C 27,8 C 21,1 C 47 % 1027,2 hPa 0,0 l/m 2 min 0 min 839 W/m 9,7 km/h (2 Bft) 97,87 %
13.06.2021 15:52 24,4 C 27,2 C 21,1 C 46 % 1027,3 hPa 0,0 l/m 2 min 0 min 841 W/m 3,2 km/h (1 Bft) 97,87 %
13.06.2021 15:50 24,4 C 26,7 C 21,1 C 46 % 1027,4 hPa 0,0 l/m 2 min 0 min 844 W/m 6,4 km/h (2 Bft) 97,83 %
13.06.2021 15:48 24,5 C 26,7 C 21,1 C 46 % 1027,4 hPa 0,0 l/m 2 min 0 min 848 W/m 12,9 km/h (3 Bft) 100,00 %
13.06.2021 15:46 24,5 C 26,1 C 21,1 C 47 % 1027,4 hPa 0,0 l/m 2 min 0 min 847 W/m 9,7 km/h (2 Bft) 100,00 %
13.06.2021 15:44 24,4 C 26,1 C 21,1 C 47 % 1027,4 hPa 0,0 l/m 2 min 0 min 841 W/m 6,4 km/h (2 Bft) 100,00 %
13.06.2021 15:42 24,4 C 26,7 C 21,1 C 48 % 1027,4 hPa 0,0 l/m 2 min 0 min 858 W/m 9,7 km/h (2 Bft) 100,00 %
13.06.2021 15:40 24,2 C 26,7 C 21,1 C 47 % 1027,4 hPa 0,0 l/m 2 min 0 min 864 W/m 6,4 km/h (2 Bft) 97,87 %
13.06.2021 15:38 24,1 C 26,7 C 21,1 C 48 % 1027,4 hPa 0,0 l/m 2 min 0 min 864 W/m 6,4 km/h (2 Bft) 100,00 %
13.06.2021 15:36 24,1 C 26,1 C 21,1 C 47 % 1027,5 hPa 0,0 l/m 2 min 0 min 865 W/m 6,4 km/h (2 Bft) 100,00 %
13.06.2021 15:34 24,1 C 26,1 C 21,1 C 49 % 1027,5 hPa 0,0 l/m 2 min 0 min 868 W/m 9,7 km/h (2 Bft) 100,00 %
13.06.2021 15:32 24,0 C 26,1 C 20,6 C 49 % 1027,6 hPa 0,0 l/m 2 min 0 min 867 W/m 9,7 km/h (2 Bft) 97,87 %
13.06.2021 15:30 24,0 C 25,6 C 20,6 C 48 % 1027,6 hPa 0,0 l/m 2 min 0 min 869 W/m 12,9 km/h (3 Bft) 97,87 %
13.06.2021 15:28 24,0 C 26,1 C 21,1 C 48 % 1027,7 hPa 0,0 l/m 2 min 0 min 870 W/m 6,4 km/h (2 Bft) 100,00 %
13.06.2021 15:26 23,9 C 26,1 C 21,1 C 49 % 1027,6 hPa 0,0 l/m 2 min 0 min 873 W/m 6,4 km/h (2 Bft) 97,83 %
13.06.2021 15:24 23,9 C 26,1 C 21,1 C 49 % 1027,6 hPa 0,0 l/m 2 min 0 min 877 W/m 12,9 km/h (3 Bft) 100,00 %
13.06.2021 15:22 23,9 C 26,1 C 21,1 C 49 % 1027,6 hPa 0,0 l/m 2 min 0 min 885 W/m 12,9 km/h (3 Bft) 100,00 %
13.06.2021 15:20 23,9 C 26,1 C 21,1 C 49 % 1027,6 hPa 0,0 l/m 2 min 0 min 890 W/m 16,1 km/h (3 Bft) 100,00 %
13.06.2021 15:18 23,9 C 26,7 C 21,1 C 49 % 1027,7 hPa 0,0 l/m 2 min 0 min 894 W/m 19,3 km/h (3 Bft) 97,87 %
13.06.2021 15:16 23,7 C 26,7 C 21,1 C 50 % 1027,7 hPa 0,0 l/m 2 min 0 min 894 W/m 12,9 km/h (3 Bft) 100,00 %
13.06.2021 15:14 23,6 C 26,1 C 20,6 C 49 % 1027,7 hPa 0,0 l/m 2 min 0 min 895 W/m 9,7 km/h (2 Bft) 100,00 %
13.06.2021 15:12 23,6 C 26,1 C 20,6 C 50 % 1027,7 hPa 0,0 l/m 2 min 0 min 896 W/m 6,4 km/h (2 Bft) 100,00 %
13.06.2021 15:10 23,5 C 26,1 C 20,6 C 50 % 1027,8 hPa 0,0 l/m 2 min 0 min 898 W/m 9,7 km/h (2 Bft) 100,00 %
13.06.2021 15:08 23,5 C 26,1 C 20,6 C 50 % 1027,7 hPa 0,0 l/m 2 min 0 min 901 W/m 9,7 km/h (2 Bft) 100,00 %
13.06.2021 15:06 23,4 C 26,1 C 20,6 C 50 % 1027,8 hPa 0,0 l/m 2 min 0 min 903 W/m 9,7 km/h (2 Bft) 100,00 %
13.06.2021 15:04 23,4 C 25,6 C 20,6 C 50 % 1027,8 hPa 0,0 l/m 2 min 0 min 907 W/m 9,7 km/h (2 Bft) 100,00 %
13.06.2021 15:02 23,4 C 25,6 C 20,0 C 52 % 1027,7 hPa 0,0 l/m 2 min 0 min 909 W/m 19,3 km/h (3 Bft) 100,00 %
13.06.2021 15:00 23,4 C 24,4 C 20,0 C 51 % 1027,8 hPa 0,0 l/m 2 min 0 min 913 W/m 16,1 km/h (3 Bft) 100,00 %
13.06.2021 14:58 23,5 C 25,0 C 20,0 C 51 % 1027,7 hPa 0,0 l/m 2 min 0 min 916 W/m 9,7 km/h (2 Bft) 100,00 %
13.06.2021 14:56 23,5 C 25,0 C 20,0 C 52 % 1027,8 hPa 0,0 l/m 2 min 0 min 917 W/m 12,9 km/h (3 Bft) 100,00 %
13.06.2021 14:54 23,4 C 25,0 C 20,6 C 52 % 1027,8 hPa 0,0 l/m 2 min 0 min 915 W/m 6,4 km/h (2 Bft) 100,00 %
13.06.2021 14:52 23,4 C 25,6 C 20,6 C 52 % 1027,8 hPa 0,0 l/m 2 min 0 min 917 W/m 16,1 km/h (3 Bft) 100,00 %
13.06.2021 14:50 23,3 C 25,6 C 20,6 C 52 % 1027,9 hPa 0,0 l/m 2 min 0 min 927 W/m 12,9 km/h (3 Bft) 100,00 %
13.06.2021 14:48 23,3 C 25,6 C 20,6 C 52 % 1027,9 hPa 0,0 l/m 2 min 0 min 926 W/m 9,7 km/h (2 Bft) 100,00 %
13.06.2021 14:46 23,3 C 25,0 C 20,6 C 52 % 1027,9 hPa 0,0 l/m 2 min 0 min 921 W/m 6,4 km/h (2 Bft) 100,00 %
13.06.2021 14:44 23,3 C 24,4 C 20,0 C 51 % 1027,9 hPa 0,0 l/m 2 min 0 min 925 W/m 16,1 km/h (3 Bft) 100,00 %
13.06.2021 14:42 23,4 C 25,6 C 20,6 C 51 % 1028,0 hPa 0,0 l/m 2 min 0 min 927 W/m 9,7 km/h (2 Bft) 100,00 %
13.06.2021 14:40 23,4 C 25,6 C 20,6 C 52 % 1028,0 hPa 0,0 l/m 2 min 0 min 935 W/m 16,1 km/h (3 Bft) 100,00 %
13.06.2021 14:38 23,4 C 25,6 C 20,6 C 53 % 1028,1 hPa 0,0 l/m 2 min 0 min 939 W/m 16,1 km/h (3 Bft) 97,83 %
13.06.2021 14:36 23,3 C 25,6 C 20,6 C 52 % 1028,0 hPa 0,0 l/m 2 min 0 min 935 W/m 6,4 km/h (2 Bft) 100,00 %
13.06.2021 14:34 23,1 C 25,6 C 20,6 C 52 % 1028,0 hPa 0,0 l/m 2 min 0 min 939 W/m 9,7 km/h (2 Bft) 97,87 %
13.06.2021 14:32 23,1 C 25,6 C 20,6 C 52 % 1028,0 hPa 0,0 l/m 2 min 0 min 940 W/m 9,7 km/h (2 Bft) 95,74 %
13.06.2021 14:30 23,0 C 25,0 C 20,6 C 52 % 1028,0 hPa 0,0 l/m 2 min 0 min 942 W/m 6,4 km/h (2 Bft) 97,87 %
13.06.2021 14:28 23,0 C 25,6 C 20,6 C 54 % 1028,0 hPa 0,0 l/m 2 min 0 min 938 W/m 16,1 km/h (3 Bft) 97,83 %
13.06.2021 14:26 23,1 C 25,0 C 21,1 C 52 % 1028,0 hPa 0,0 l/m 2 min 0 min 939 W/m 12,9 km/h (3 Bft) 93,62 %
13.06.2021 14:24 23,1 C 26,1 C 21,1 C 54 % 1028,0 hPa 0,0 l/m 2 min 0 min 940 W/m 9,7 km/h (2 Bft) 97,44 %
13.06.2021 14:22 23,1 C 25,6 C 21,7 C 52 % 1028,1 hPa 0,0 l/m 2 min 0 min 944 W/m 6,4 km/h (2 Bft) 47,62 %
13.06.2021 14:20 23,1 C 25,6 C 21,7 C 52 % 1028,1 hPa 0,0 l/m 2 min 0 min 943 W/m 16,1 km/h (3 Bft) 97,87 %
13.06.2021 14:18 23,1 C 25,6 C 21,7 C 53 % 1028,1 hPa 0,0 l/m 2 min 0 min 946 W/m 6,4 km/h (2 Bft) 97,87 %
13.06.2021 14:16 23,1 C 25,6 C 21,7 C 52 % 1028,1 hPa 0,0 l/m 2 min 0 min 948 W/m 12,9 km/h (3 Bft) 95,74 %
13.06.2021 14:14 23,1 C 25,6 C 21,7 C 53 % 1028,1 hPa 0,0 l/m 2 min 0 min 948 W/m 12,9 km/h (3 Bft) 97,83 %
13.06.2021 14:12 22,9 C 25,6 C 22,3 C 54 % 1028,1 hPa 0,0 l/m 2 min 0 min 955 W/m 12,9 km/h (3 Bft) 95,74 %
13.06.2021 14:10 22,8 C 25,6 C 22,3 C 53 % 1028,1 hPa 0,0 l/m 2 min 0 min 954 W/m 12,9 km/h (3 Bft) 95,74 %
13.06.2021 14:08 22,7 C 25,0 C 22,8 C 54 % 1028,1 hPa 0,0 l/m 2 min 0 min 954 W/m 6,4 km/h (2 Bft) 97,87 %
13.06.2021 14:06 22,6 C 25,0 C 23,4 C 54 % 1028,1 hPa 0,0 l/m 2 min 0 min 951 W/m 6,4 km/h (2 Bft) 97,87 %
13.06.2021 14:04 22,5 C 24,4 C 23,4 C 55 % 1028,1 hPa 0,0 l/m 2 min 0 min 951 W/m 12,9 km/h (3 Bft) 93,62 %
13.06.2021 14:02 22,5 C 23,9 C 26,1 C 53 % 1028,2 hPa 0,0 l/m 2 min 0 min 953 W/m 12,9 km/h (3 Bft) 95,65 %
13.06.2021 14:00 22,6 C 23,9 C 26,1 C 53 % 1028,2 hPa 0,0 l/m 2 min 0 min 950 W/m 9,7 km/h (2 Bft) 95,74 %
13.06.2021 13:58 22,6 C 24,4 C 26,7 C 53 % 1028,2 hPa 0,0 l/m 2 min 0 min 949 W/m 6,4 km/h (2 Bft) 95,74 %
13.06.2021 13:56 22,6 C 24,4 C 28,9 C 54 % 1028,1 hPa 0,0 l/m 2 min 0 min 949 W/m 9,7 km/h (2 Bft) 95,74 %
13.06.2021 13:54 22,6 C 24,4 C 30,0 C 53 % 1028,2 hPa 0,0 l/m 2 min 0 min 949 W/m 9,7 km/h (2 Bft) 95,74 %
13.06.2021 13:52 22,6 C 24,4 C 32,3 C 53 % 1028,3 hPa 0,0 l/m 2 min 0 min 954 W/m 9,7 km/h (2 Bft) 95,74 %
13.06.2021 13:50 22,6 C 24,4 C 33,4 C 54 % 1028,3 hPa 0,0 l/m 2 min 0 min 954 W/m 12,9 km/h (3 Bft) 95,65 %
13.06.2021 13:48 22,7 C 25,0 C 33,9 C 54 % 1028,3 hPa 0,0 l/m 2 min 0 min 953 W/m 12,9 km/h (3 Bft) 97,87 %
13.06.2021 13:46 22,5 C 24,4 C 33,9 C 54 % 1028,3 hPa 0,0 l/m 2 min 0 min 953 W/m 6,4 km/h (2 Bft) 100,00 %
13.06.2021 13:44 22,4 C 24,4 C 33,9 C 55 % 1028,3 hPa 0,0 l/m 2 min 0 min 954 W/m 12,9 km/h (3 Bft) 97,87 %
13.06.2021 13:42 22,4 C 23,9 C 33,9 C 54 % 1028,3 hPa 0,0 l/m 2 min 0 min 954 W/m 12,9 km/h (3 Bft) 95,74 %
13.06.2021 13:40 22,3 C 23,9 C 33,9 C 54 % 1028,2 hPa 0,0 l/m 2 min 0 min 955 W/m 12,9 km/h (3 Bft) 97,83 %
13.06.2021 13:38 22,2 C 23,9 C 33,4 C 55 % 1028,3 hPa 0,0 l/m 2 min 0 min 956 W/m 9,7 km/h (2 Bft) 97,87 %
13.06.2021 13:36 22,1 C 23,9 C 33,9 C 55 % 1028,3 hPa 0,0 l/m 2 min 0 min 955 W/m 6,4 km/h (2 Bft) 97,87 %
13.06.2021 13:34 22,1 C 23,3 C 32,8 C 55 % 1028,3 hPa 0,0 l/m 2 min 0 min 958 W/m 16,1 km/h (3 Bft) 97,87 %
13.06.2021 13:32 22,0 C 23,9 C 33,9 C 55 % 1028,3 hPa 0,0 l/m 2 min 0 min 955 W/m 12,9 km/h (3 Bft) 97,87 %
13.06.2021 13:30 22,0 C 23,3 C 33,4 C 54 % 1028,3 hPa 0,0 l/m 2 min 0 min 957 W/m 9,7 km/h (2 Bft) 100,00 %
13.06.2021 13:28 22,1 C 23,3 C 33,9 C 54 % 1028,4 hPa 0,0 l/m 2 min 0 min 958 W/m 6,4 km/h (2 Bft) 97,83 %
13.06.2021 13:26 22,1 C 23,3 C 32,8 C 55 % 1028,4 hPa 0,0 l/m 2 min 0 min 954 W/m 12,9 km/h (3 Bft) 97,87 %
13.06.2021 13:24 22,0 C 23,3 C 32,8 C 57 % 1028,4 hPa 0,0 l/m 2 min 0 min 952 W/m 9,7 km/h (2 Bft) 97,87 %
13.06.2021 13:22 22,0 C 23,3 C 32,8 C 55 % 1028,4 hPa 0,0 l/m 2 min 0 min 953 W/m 16,1 km/h (3 Bft) 93,62 %
13.06.2021 13:20 22,0 C 23,3 C 32,8 C 54 % 1028,4 hPa 0,0 l/m 2 min 0 min 953 W/m 16,1 km/h (3 Bft) 93,62 %
13.06.2021 13:18 21,9 C 23,3 C 32,3 C 54 % 1028,4 hPa 0,0 l/m 2 min 0 min 953 W/m 16,1 km/h (3 Bft) 97,87 %
13.06.2021 13:16 21,8 C 22,8 C 33,4 C 52 % 1028,4 hPa 0,0 l/m 2 min 0 min 954 W/m 9,7 km/h (2 Bft) 95,65 %
13.06.2021 13:14 21,8 C 22,8 C 33,4 C 51 % 1028,5 hPa 0,0 l/m 2 min 0 min 951 W/m 6,4 km/h (2 Bft) 95,74 %
13.06.2021 13:12 21,8 C 22,8 C 32,8 C 52 % 1028,5 hPa 0,0 l/m 2 min 0 min 952 W/m 6,4 km/h (2 Bft) 93,62 %
13.06.2021 13:10 21,9 C 23,3 C 32,3 C 53 % 1028,5 hPa 0,0 l/m 2 min 0 min 956 W/m 9,7 km/h (2 Bft) 95,74 %
13.06.2021 13:08 21,9 C 22,8 C 33,4 C 53 % 1028,4 hPa 0,0 l/m 2 min 0 min 953 W/m 12,9 km/h (3 Bft) 97,87 %
13.06.2021 13:06 21,8 C 22,8 C 33,9 C 53 % 1028,4 hPa 0,0 l/m 2 min 0 min 956 W/m 12,9 km/h (3 Bft) 97,87 %
13.06.2021 13:04 21,6 C 23,3 C 33,4 C 53 % 1028,4 hPa 0,0 l/m 2 min 0 min 952 W/m 3,2 km/h (1 Bft) 95,65 %
13.06.2021 13:02 21,6 C 23,3 C 33,4 C 52 % 1028,5 hPa 0,0 l/m 2 min 0 min 947 W/m 6,4 km/h (2 Bft) 97,87 %
13.06.2021 13:00 21,6 C 23,3 C 32,8 C 53 % 1028,5 hPa 0,0 l/m 2 min 0 min 947 W/m 9,7 km/h (2 Bft) 97,87 %
13.06.2021 12:58 21,5 C 22,2 C 32,3 C 53 % 1028,5 hPa 0,0 l/m 2 min 0 min 944 W/m 6,4 km/h (2 Bft) 97,87 %
13.06.2021 12:56 21,4 C 22,8 C 31,7 C 53 % 1028,5 hPa 0,0 l/m 2 min 0 min 944 W/m 6,4 km/h (2 Bft) 97,87 %
13.06.2021 12:54 21,4 C 23,3 C 31,7 C 53 % 1028,5 hPa 0,0 l/m 2 min 0 min 942 W/m 16,1 km/h (3 Bft) 97,87 %
13.06.2021 12:52 21,4 C 23,3 C 31,1 C 56 % 1028,5 hPa 0,0 l/m 2 min 0 min 941 W/m 9,7 km/h (2 Bft) 97,83 %
13.06.2021 12:50 21,3 C 23,3 C 31,1 C 54 % 1028,6 hPa 0,0 l/m 2 min 0 min 939 W/m 6,4 km/h (2 Bft) 97,87 %
13.06.2021 12:48 21,2 C 22,8 C 30,0 C 54 % 1028,6 hPa 0,0 l/m 2 min 0 min 936 W/m 3,2 km/h (1 Bft) 97,87 %
13.06.2021 12:46 21,2 C 22,2 C 31,1 C 54 % 1028,6 hPa 0,0 l/m 2 min 0 min 934 W/m 16,1 km/h (3 Bft) 97,87 %
13.06.2021 12:44 21,2 C 22,8 C 31,1 C 55 % 1028,6 hPa 0,0 l/m 2 min 0 min 935 W/m 6,4 km/h (2 Bft) 97,87 %
13.06.2021 12:42 21,1 C 22,8 C 30,6 C 55 % 1028,6 hPa 0,0 l/m 2 min 0 min 930 W/m 16,1 km/h (3 Bft) 95,74 %
13.06.2021 12:40 21,0 C 23,3 C 29,5 C 56 % 1028,6 hPa 0,0 l/m 2 min 0 min 929 W/m 16,1 km/h (3 Bft) 97,83 %
13.06.2021 12:38 20,9 C 23,3 C 29,5 C 57 % 1028,6 hPa 0,0 l/m 2 min 0 min 931 W/m 22,5 km/h (4 Bft) 97,87 %
13.06.2021 12:36 20,8 C 22,8 C 28,9 C 56 % 1028,7 hPa 0,0 l/m 2 min 0 min 927 W/m 22,5 km/h (4 Bft) 97,87 %
13.06.2021 12:34 20,7 C 21,7 C 29,5 C 56 % 1028,6 hPa 0,0 l/m 2 min 0 min 925 W/m 6,4 km/h (2 Bft) 97,87 %
13.06.2021 12:32 20,9 C 21,1 C 29,5 C 54 % 1028,6 hPa 0,0 l/m 2 min 0 min 920 W/m 12,9 km/h (3 Bft) 97,87 %
13.06.2021 12:30 21,0 C 22,2 C 30,6 C 56 % 1028,7 hPa 0,0 l/m 2 min 0 min 917 W/m 9,7 km/h (2 Bft) 97,87 %
13.06.2021 12:28 21,0 C 22,8 C 30,6 C 56 % 1028,6 hPa 0,0 l/m 2 min 0 min 923 W/m 9,7 km/h (2 Bft) 97,83 %
13.06.2021 12:26 21,0 C 22,8 C 31,1 C 55 % 1028,7 hPa 0,0 l/m 2 min 0 min 919 W/m 12,9 km/h (3 Bft) 97,87 %
13.06.2021 12:24 21,1 C 22,8 C 31,7 C 55 % 1028,6 hPa 0,0 l/m 2 min 0 min 918 W/m 12,9 km/h (3 Bft) 97,87 %
13.06.2021 12:22 21,1 C 22,8 C 30,6 C 55 % 1028,6 hPa 0,0 l/m 2 min 0 min 915 W/m 12,9 km/h (3 Bft) 97,87 %
13.06.2021 12:20 21,1 C 22,8 C 29,5 C 55 % 1028,6 hPa 0,0 l/m 2 min 0 min 917 W/m 9,7 km/h (2 Bft) 97,87 %
13.06.2021 12:18 21,1 C 22,2 C 28,9 C 56 % 1028,6 hPa 0,0 l/m 2 min 0 min 912 W/m 12,9 km/h (3 Bft) 97,87 %
13.06.2021 12:16 21,1 C 22,2 C 28,4 C 55 % 1028,6 hPa 0,0 l/m 2 min 0 min 910 W/m 9,7 km/h (2 Bft) 97,83 %
13.06.2021 12:14 21,1 C 22,2 C 27,8 C 55 % 1028,6 hPa 0,0 l/m 2 min 0 min 907 W/m 16,1 km/h (3 Bft) 97,87 %
13.06.2021 12:12 21,1 C 22,8 C 27,8 C 56 % 1028,6 hPa 0,0 l/m 2 min 0 min 905 W/m 16,1 km/h (3 Bft) 97,87 %
13.06.2021 12:10 21,0 C 23,3 C 26,7 C 56 % 1028,6 hPa 0,0 l/m 2 min 0 min 902 W/m 16,1 km/h (3 Bft) 95,74 %
13.06.2021 12:08 21,0 C 22,8 C 25,0 C 56 % 1028,7 hPa 0,0 l/m 4 min 0 min 900 W/m 9,7 km/h (2 Bft) 97,87 %
13.06.2021 12:04 20,9 C 23,9 C 22,8 C 57 % 1028,5 hPa 0,0 l/m 2 min 0 min 898 W/m 9,7 km/h (2 Bft) 97,83 %
13.06.2021 12:02 20,9 C 23,3 C 23,4 C 57 % 1028,6 hPa 0,0 l/m 2 min 0 min 894 W/m 9,7 km/h (2 Bft) 97,87 %
13.06.2021 12:00 20,9 C 23,3 C 23,9 C 57 % 1028,5 hPa 0,0 l/m 2 min 0 min 892 W/m 9,7 km/h (2 Bft) 95,74 %
13.06.2021 11:58 20,8 C 23,9 C 23,9 C 57 % 1028,6 hPa 0,0 l/m 2 min 0 min 889 W/m 6,4 km/h (2 Bft) 95,74 %
13.06.2021 11:56 20,8 C 23,9 C 23,9 C 57 % 1028,6 hPa 0,0 l/m 2 min 0 min 882 W/m 12,9 km/h (3 Bft) 97,87 %
13.06.2021 11:54 20,6 C 23,3 C 24,5 C 58 % 1028,6 hPa 0,0 l/m 2 min 0 min 882 W/m 16,1 km/h (3 Bft) 97,87 %
13.06.2021 11:52 20,6 C 23,3 C 23,9 C 57 % 1028,6 hPa 0,0 l/m 2 min 0 min 878 W/m 12,9 km/h (3 Bft) 97,83 %
13.06.2021 11:50 20,5 C 23,9 C 24,5 C 58 % 1028,5 hPa 0,0 l/m 2 min 0 min 881 W/m 12,9 km/h (3 Bft) 97,87 %
13.06.2021 11:48 20,5 C 23,3 C 24,5 C 58 % 1028,6 hPa 0,0 l/m 2 min 0 min 878 W/m 9,7 km/h (2 Bft) 95,74 %
13.06.2021 11:46 20,4 C 23,3 C 23,9 C 59 % 1028,6 hPa 0,0 l/m 2 min 0 min 875 W/m 6,4 km/h (2 Bft) 95,74 %
13.06.2021 11:44 20,3 C 23,3 C 22,3 C 60 % 1028,6 hPa 0,0 l/m 2 min 0 min 872 W/m 9,7 km/h (2 Bft) 97,87 %
13.06.2021 11:42 20,2 C 22,8 C 20,6 C 61 % 1028,5 hPa 0,0 l/m 2 min 0 min 866 W/m 6,4 km/h (2 Bft) 97,83 %
13.06.2021 11:40 20,1 C 22,8 C 19,5 C 60 % 1028,6 hPa 0,0 l/m 2 min 0 min 866 W/m 9,7 km/h (2 Bft) 97,87 %
13.06.2021 11:38 20,0 C 22,2 C 19,5 C 60 % 1028,6 hPa 0,0 l/m 2 min 0 min 862 W/m 6,4 km/h (2 Bft) 95,74 %
13.06.2021 11:36 19,9 C 22,2 C 20,0 C 59 % 1028,6 hPa 0,0 l/m 2 min 0 min 861 W/m 6,4 km/h (2 Bft) 97,87 %
13.06.2021 11:34 19,9 C 22,8 C 20,6 C 59 % 1028,6 hPa 0,0 l/m 2 min 0 min 856 W/m 6,4 km/h (2 Bft) 97,87 %
13.06.2021 11:32 19,8 C 22,8 C 21,7 C 60 % 1028,7 hPa 0,0 l/m 2 min 0 min 855 W/m 3,2 km/h (1 Bft) 95,74 %
13.06.2021 11:30 19,6 C 22,8 C 23,4 C 60 % 1028,7 hPa 0,0 l/m 2 min 0 min 850 W/m 6,4 km/h (2 Bft) 93,48 %
13.06.2021 11:28 19,5 C 22,8 C 23,4 C 60 % 1028,7 hPa 0,0 l/m 2 min 0 min 845 W/m 6,4 km/h (2 Bft) 95,74 %
13.06.2021 11:26 19,4 C 22,8 C 21,7 C 61 % 1028,7 hPa 0,0 l/m 2 min 0 min 844 W/m 9,7 km/h (2 Bft) 97,87 %
13.06.2021 11:24 19,3 C 22,2 C 20,0 C 61 % 1028,7 hPa 0,0 l/m 2 min 0 min 843 W/m 6,4 km/h (2 Bft) 95,74 %
13.06.2021 11:22 19,3 C 21,1 C 19,5 C 61 % 1028,7 hPa 0,0 l/m 2 min 0 min 840 W/m 6,4 km/h (2 Bft) 97,87 %
13.06.2021 11:20 19,3 C 21,7 C 18,9 C 61 % 1028,6 hPa 0,0 l/m 2 min 0 min 829 W/m 12,9 km/h (3 Bft) 97,87 %
13.06.2021 11:18 19,3 C 21,1 C 19,5 C 61 % 1028,6 hPa 0,0 l/m 2 min 0 min 799 W/m 9,7 km/h (2 Bft) 100,00 %
13.06.2021 11:16 19,3 C 21,1 C 20,0 C 61 % 1028,7 hPa 0,0 l/m 2 min 0 min 762 W/m 12,9 km/h (3 Bft) 100,00 %
13.06.2021 11:14 19,3 C 21,7 C 21,1 C 61 % 1028,6 hPa 0,0 l/m 2 min 0 min 790 W/m 6,4 km/h (2 Bft) 100,00 %
13.06.2021 11:12 19,3 C 21,7 C 22,8 C 61 % 1028,6 hPa 0,0 l/m 2 min 0 min 807 W/m 6,4 km/h (2 Bft) 100,00 %
13.06.2021 11:10 19,4 C 21,1 C 23,9 C 62 % 1028,6 hPa 0,0 l/m 2 min 0 min 802 W/m 6,4 km/h (2 Bft) 100,00 %
13.06.2021 11:08 19,4 C 21,1 C 24,5 C 62 % 1028,6 hPa 0,0 l/m 2 min 0 min 800 W/m 6,4 km/h (2 Bft) 97,87 %
13.06.2021 11:06 19,4 C 21,7 C 24,5 C 62 % 1028,5 hPa 0,0 l/m 2 min 0 min 795 W/m 12,9 km/h (3 Bft) 100,00 %
13.06.2021 11:04 19,5 C 21,7 C 25,0 C 61 % 1028,6 hPa 0,0 l/m 2 min 0 min 795 W/m 12,9 km/h (3 Bft) 100,00 %
13.06.2021 11:02 19,5 C 22,2 C 25,6 C 62 % 1028,6 hPa 0,0 l/m 2 min 0 min 801 W/m 6,4 km/h (2 Bft) 97,87 %
13.06.2021 11:00 19,4 C 22,2 C 25,0 C 62 % 1028,6 hPa 0,0 l/m 2 min 0 min 805 W/m 12,9 km/h (3 Bft) 100,00 %
13.06.2021 10:58 19,4 C 22,8 C 25,0 C 62 % 1028,6 hPa 0,0 l/m 2 min 0 min 799 W/m 12,9 km/h (3 Bft) 97,87 %
13.06.2021 10:56 19,3 C 23,3 C 25,0 C 63 % 1028,6 hPa 0,0 l/m 2 min 0 min 791 W/m 6,4 km/h (2 Bft) 100,00 %
13.06.2021 10:54 19,2 C 22,8 C 24,5 C 64 % 1028,6 hPa 0,0 l/m 2 min 0 min 800 W/m 6,4 km/h (2 Bft) 100,00 %
13.06.2021 10:52 19,1 C 22,2 C 24,5 C 63 % 1028,6 hPa 0,0 l/m 2 min 0 min 805 W/m 12,9 km/h (3 Bft) 97,87 %
13.06.2021 10:50 19,0 C 22,2 C 23,9 C 64 % 1028,6 hPa 0,0 l/m 2 min 0 min 805 W/m 9,7 km/h (2 Bft) 97,87 %
13.06.2021 10:48 18,9 C 21,7 C 23,9 C 63 % 1028,7 hPa 0,0 l/m 2 min 0 min 824 W/m 6,4 km/h (2 Bft) 97,87 %
13.06.2021 10:46 19,0 C 21,7 C 23,4 C 63 % 1028,8 hPa 0,0 l/m 2 min 0 min 783 W/m 12,9 km/h (3 Bft) 97,87 %
13.06.2021 10:44 18,9 C 21,1 C 24,5 C 63 % 1028,7 hPa 0,0 l/m 2 min 0 min 772 W/m 9,7 km/h (2 Bft) 97,87 %
13.06.2021 10:42 18,9 C 21,7 C 23,9 C 62 % 1028,8 hPa 0,0 l/m 2 min 0 min 763 W/m 9,7 km/h (2 Bft) 97,83 %
13.06.2021 10:40 18,9 C 21,7 C 23,4 C 62 % 1028,6 hPa 0,0 l/m 2 min 0 min 764 W/m 12,9 km/h (3 Bft) 97,87 %
13.06.2021 10:38 18,9 C 21,7 C 22,3 C 63 % 1028,6 hPa 0,0 l/m 2 min 0 min 761 W/m 12,9 km/h (3 Bft) 95,74 %
13.06.2021 10:36 18,9 C 21,1 C 22,3 C 63 % 1028,6 hPa 0,0 l/m 2 min 0 min 764 W/m 9,7 km/h (2 Bft) 97,87 %
13.06.2021 10:34 19,0 C 21,1 C 21,7 C 63 % 1028,6 hPa 0,0 l/m 0 min 0 min 347 W/m 12,9 km/h (3 Bft) 95,74 %
13.06.2021 10:32 19,1 C 21,1 C 21,1 C 62 % 1028,7 hPa 0,0 l/m 2 min 0 min 382 W/m 3,2 km/h (1 Bft) 97,87 %
13.06.2021 10:30 19,3 C 22,8 C 22,8 C 61 % 1028,7 hPa 0,0 l/m 2 min 0 min 733 W/m 9,7 km/h (2 Bft) 97,83 %
13.06.2021 10:28 19,4 C 23,3 C 22,8 C 61 % 1028,6 hPa 0,0 l/m 2 min 0 min 690 W/m 9,7 km/h (2 Bft) 97,87 %
13.06.2021 10:26 19,4 C 23,3 C 22,8 C 61 % 1028,7 hPa 0,0 l/m 2 min 0 min 714 W/m 6,4 km/h (2 Bft) 97,87 %
13.06.2021 10:24 19,4 C 23,3 C 22,3 C 61 % 1028,6 hPa 0,0 l/m 2 min 0 min 714 W/m 9,7 km/h (2 Bft) 97,87 %
13.06.2021 10:22 19,4 C 23,9 C 22,3 C 63 % 1028,6 hPa 0,0 l/m 2 min 0 min 724 W/m 9,7 km/h (2 Bft) 95,74 %
13.06.2021 10:20 19,3 C 23,3 C 22,8 C 61 % 1028,6 hPa 0,0 l/m 2 min 0 min 711 W/m 9,7 km/h (2 Bft) 97,87 %
13.06.2021 10:18 19,3 C 23,3 C 22,8 C 61 % 1028,6 hPa 0,0 l/m 2 min 0 min 689 W/m 6,4 km/h (2 Bft) 97,83 %
13.06.2021 10:16 19,4 C 24,4 C 22,8 C 62 % 1028,6 hPa 0,0 l/m 2 min 0 min 696 W/m 6,4 km/h (2 Bft) 97,87 %
13.06.2021 10:14 19,3 C 23,9 C 22,3 C 63 % 1028,6 hPa 0,0 l/m 2 min 0 min 699 W/m 6,4 km/h (2 Bft) 97,87 %
13.06.2021 10:12 19,2 C 23,3 C 22,3 C 63 % 1028,6 hPa 0,0 l/m 2 min 0 min 672 W/m 9,7 km/h (2 Bft) 97,87 %
13.06.2021 10:10 19,2 C 24,4 C 22,3 C 63 % 1028,6 hPa 0,0 l/m 2 min 0 min 695 W/m 9,7 km/h (2 Bft) 97,87 %
13.06.2021 10:08 19,1 C 23,9 C 22,3 C 64 % 1028,6 hPa 0,0 l/m 2 min 0 min 689 W/m 6,4 km/h (2 Bft) 97,87 %
13.06.2021 10:06 18,9 C 23,9 C 21,7 C 63 % 1028,6 hPa 0,0 l/m 2 min 0 min 691 W/m 9,7 km/h (2 Bft) 95,65 %
13.06.2021 10:04 18,8 C 23,3 C 21,7 C 63 % 1028,6 hPa 0,0 l/m 2 min 0 min 685 W/m 6,4 km/h (2 Bft) 97,87 %
13.06.2021 10:02 18,6 C 23,3 C 21,1 C 63 % 1028,6 hPa 0,0 l/m 2 min 0 min 673 W/m 6,4 km/h (2 Bft) 97,87 %
13.06.2021 10:00 18,5 C 22,8 C 20,6 C 63 % 1028,6 hPa 0,0 l/m 2 min 0 min 668 W/m 6,4 km/h (2 Bft) 97,87 %
13.06.2021 09:58 18,4 C 22,8 C 21,1 C 63 % 1028,7 hPa 0,0 l/m 2 min 0 min 665 W/m 12,9 km/h (3 Bft) 97,67 %
13.06.2021 09:56 18,4 C 22,2 C 20,6 C 63 % 1028,7 hPa 0,0 l/m 2 min 0 min 655 W/m 6,4 km/h (2 Bft) 100,00 %
13.06.2021 09:54 18,4 C 22,2 C 20,6 C 63 % 1028,7 hPa 0,0 l/m 2 min 0 min 653 W/m 3,2 km/h (1 Bft) 100,00 %
13.06.2021 09:52 18,4 C 22,8 C 20,0 C 63 % 1028,7 hPa 0,0 l/m 2 min 0 min 645 W/m 12,9 km/h (3 Bft) 100,00 %
13.06.2021 09:50 18,4 C 22,8 C 20,0 C 63 % 1028,6 hPa 0,0 l/m 2 min 0 min 636 W/m 12,9 km/h (3 Bft) 100,00 %
13.06.2021 09:48 18,3 C 23,9 C 20,0 C 65 % 1028,6 hPa 0,0 l/m 2 min 0 min 634 W/m 9,7 km/h (2 Bft) 100,00 %
13.06.2021 09:46 18,2 C 23,3 C 19,5 C 64 % 1028,6 hPa 0,0 l/m 2 min 0 min 632 W/m 9,7 km/h (2 Bft) 100,00 %
13.06.2021 09:44 18,1 C 24,4 C 18,9 C 65 % 1028,6 hPa 0,0 l/m 2 min 0 min 627 W/m 12,9 km/h (3 Bft) 100,00 %
13.06.2021 09:42 17,9 C 25,0 C 18,9 C 65 % 1028,5 hPa 0,0 l/m 2 min 0 min 617 W/m 6,4 km/h (2 Bft) 100,00 %
13.06.2021 09:40 17,7 C 25,0 C 18,4 C 66 % 1028,5 hPa 0,0 l/m 2 min 0 min 611 W/m 6,4 km/h (2 Bft) 100,00 %
13.06.2021 09:38 17,6 C 24,4 C 17,8 C 67 % 1028,4 hPa 0,0 l/m 2 min 0 min 606 W/m 3,2 km/h (1 Bft) 100,00 %
13.06.2021 09:36 17,4 C 24,4 C 17,8 C 67 % 1028,5 hPa 0,0 l/m 2 min 0 min 604 W/m 6,4 km/h (2 Bft) 100,00 %
13.06.2021 09:34 17,3 C 23,9 C 17,3 C 67 % 1028,5 hPa 0,0 l/m 2 min 0 min 597 W/m 12,9 km/h (3 Bft) 100,00 %
13.06.2021 09:32 17,2 C 23,3 C 17,3 C 68 % 1028,5 hPa 0,0 l/m 2 min 0 min 602 W/m 6,4 km/h (2 Bft) 100,00 %
13.06.2021 09:30 17,0 C 23,3 C 16,7 C 68 % 1028,5 hPa 0,0 l/m 2 min 0 min 557 W/m 6,4 km/h (2 Bft) 100,00 %
13.06.2021 09:28 16,9 C 22,8 C 16,7 C 69 % 1028,5 hPa 0,0 l/m 0 min 0 min 274 W/m 6,4 km/h (2 Bft) 100,00 %
13.06.2021 09:26 16,7 C 21,7 C 16,1 C 69 % 1028,4 hPa 0,0 l/m 0 min 0 min 223 W/m 6,4 km/h (2 Bft) 95,74 %
13.06.2021 09:24 16,5 C 21,7 C 16,1 C 70 % 1028,5 hPa 0,0 l/m 2 min 0 min 582 W/m 6,4 km/h (2 Bft) 97,87 %
13.06.2021 09:22 16,4 C 21,1 C 15,6 C 71 % 1028,5 hPa 0,0 l/m 2 min 0 min 565 W/m 3,2 km/h (1 Bft) 97,87 %
13.06.2021 09:20 16,3 C 20,0 C 15,6 C 71 % 1028,5 hPa 0,0 l/m 2 min 0 min 576 W/m 3,2 km/h (1 Bft) 97,87 %
13.06.2021 09:18 16,3 C 20,0 C 15,0 C 70 % 1028,5 hPa 0,0 l/m 2 min 0 min 578 W/m 12,9 km/h (3 Bft) 97,83 %
13.06.2021 09:16 16,1 C 20,6 C 15,0 C 72 % 1028,5 hPa 0,0 l/m 2 min 0 min 575 W/m 16,1 km/h (3 Bft) 97,87 %
13.06.2021 09:14 16,0 C 19,4 C 14,5 C 73 % 1028,5 hPa 0,0 l/m 2 min 0 min 556 W/m 3,2 km/h (1 Bft) 97,87 %
13.06.2021 09:12 16,0 C 17,2 C 13,4 C 73 % 1028,4 hPa 0,0 l/m 0 min 0 min 270 W/m 3,2 km/h (1 Bft) 95,74 %
13.06.2021 09:10 16,0 C 15,6 C 12,8 C 73 % 1028,4 hPa 0,0 l/m 0 min 0 min 103 W/m 3,2 km/h (1 Bft) 96,30 %
13.06.2021 09:08 16,0 C 15,6 C 12,8 C 74 % 1028,4 hPa 0,0 l/m 0 min 0 min 106 W/m 3,2 km/h (1 Bft) 97,83 %
13.06.2021 09:06 16,1 C 15,6 C 13,4 C 74 % 1028,4 hPa 0,0 l/m 0 min 0 min 119 W/m 0,0 km/h (0 Bft) 97,87 %
13.06.2021 09:04 16,1 C 15,6 C 13,4 C 73 % 1028,4 hPa 0,0 l/m 0 min 0 min 120 W/m 3,2 km/h (1 Bft) 97,87 %
13.06.2021 09:02 16,3 C 16,1 C 13,4 C 73 % 1028,4 hPa 0,0 l/m 0 min 0 min 126 W/m 3,2 km/h (1 Bft) 97,87 %
13.06.2021 09:00 16,4 C 15,6 C 13,4 C 73 % 1028,4 hPa 0,0 l/m 0 min 0 min 135 W/m 3,2 km/h (1 Bft) 97,87 %
13.06.2021 08:58 16,4 C 16,1 C 13,9 C 74 % 1028,4 hPa 0,0 l/m 0 min 0 min 106 W/m 6,4 km/h (2 Bft) 97,87 %
13.06.2021 08:56 16,5 C 16,7 C 13,9 C 75 % 1028,4 hPa 0,0 l/m 0 min 0 min 101 W/m 9,7 km/h (2 Bft) 97,83 %
13.06.2021 08:54 16,5 C 16,7 C 14,5 C 75 % 1028,3 hPa 0,0 l/m 0 min 0 min 125 W/m 6,4 km/h (2 Bft) 95,74 %
13.06.2021 08:52 16,6 C 17,8 C 15,0 C 75 % 1028,3 hPa 0,0 l/m 0 min 0 min 104 W/m 3,2 km/h (1 Bft) 95,74 %
13.06.2021 08:50 16,6 C 18,3 C 15,0 C 76 % 1028,2 hPa 0,0 l/m 0 min 0 min 107 W/m 6,4 km/h (2 Bft) 97,87 %
13.06.2021 08:48 16,5 C 18,9 C 15,6 C 77 % 1028,2 hPa 0,0 l/m 0 min 0 min 200 W/m 6,4 km/h (2 Bft) 100,00 %
13.06.2021 08:46 16,4 C 19,4 C 15,6 C 77 % 1028,2 hPa 0,0 l/m 2 min 0 min 455 W/m 3,2 km/h (1 Bft) 100,00 %
13.06.2021 08:44 16,2 C 20,0 C 15,6 C 78 % 1028,2 hPa 0,0 l/m 2 min 0 min 473 W/m 3,2 km/h (1 Bft) 100,00 %
13.06.2021 08:42 16,0 C 20,0 C 15,6 C 78 % 1028,2 hPa 0,0 l/m 2 min 0 min 456 W/m 6,4 km/h (2 Bft) 100,00 %
13.06.2021 08:40 15,8 C 20,0 C 15,6 C 79 % 1028,1 hPa 0,0 l/m 2 min 0 min 444 W/m 6,4 km/h (2 Bft) 100,00 %
13.06.2021 08:38 15,6 C 19,4 C 15,6 C 80 % 1028,1 hPa 0,0 l/m 2 min 0 min 435 W/m 6,4 km/h (2 Bft) 100,00 %
13.06.2021 08:36 15,5 C 18,9 C 15,6 C 81 % 1028,1 hPa 0,0 l/m 2 min 0 min 423 W/m 3,2 km/h (1 Bft) 100,00 %
13.06.2021 08:34 15,3 C 18,9 C 15,0 C 82 % 1028,1 hPa 0,0 l/m 2 min 0 min 417 W/m 3,2 km/h (1 Bft) 100,00 %
13.06.2021 08:32 15,0 C 18,3 C 15,0 C 82 % 1028,1 hPa 0,0 l/m 2 min 0 min 405 W/m 3,2 km/h (1 Bft) 100,00 %
13.06.2021 08:30 14,9 C 18,3 C 14,5 C 83 % 1028,0 hPa 0,0 l/m 2 min 0 min 399 W/m 6,4 km/h (2 Bft) 100,00 %
13.06.2021 08:28 14,7 C 17,8 C 14,5 C 83 % 1028,0 hPa 0,0 l/m 2 min 0 min 388 W/m 3,2 km/h (1 Bft) 97,87 %
13.06.2021 08:26 14,6 C 17,8 C 13,9 C 84 % 1028,0 hPa 0,0 l/m 2 min 0 min 385 W/m 3,2 km/h (1 Bft) 100,00 %
13.06.2021 08:24 14,4 C 17,2 C 13,4 C 85 % 1028,1 hPa 0,0 l/m 2 min 0 min 383 W/m 3,2 km/h (1 Bft) 100,00 %
13.06.2021 08:22 14,2 C 17,8 C 13,4 C 85 % 1028,1 hPa 0,0 l/m 2 min 0 min 383 W/m 3,2 km/h (1 Bft) 100,00 %
13.06.2021 08:20 14,2 C 17,2 C 12,8 C 86 % 1028,1 hPa 0,0 l/m 2 min 0 min 373 W/m 0,0 km/h (0 Bft) 100,00 %
13.06.2021 08:18 14,0 C 16,7 C 12,3 C 87 % 1028,1 hPa 0,0 l/m 2 min 0 min 367 W/m 6,4 km/h (2 Bft) 100,00 %
13.06.2021 08:16 13,8 C 16,1 C 12,3 C 87 % 1028,0 hPa 0,0 l/m 2 min 0 min 362 W/m 3,2 km/h (1 Bft) 100,00 %
13.06.2021 08:14 13,7 C 15,6 C 12,3 C 88 % 1028,0 hPa 0,0 l/m 2 min 0 min 357 W/m 3,2 km/h (1 Bft) 100,00 %
13.06.2021 08:12 13,5 C 15,6 C 11,7 C 88 % 1028,0 hPa 0,0 l/m 2 min 0 min 353 W/m 3,2 km/h (1 Bft) 100,00 %
13.06.2021 08:10 13,4 C 15,0 C 11,7 C 89 % 1027,9 hPa 0,0 l/m 2 min 0 min 344 W/m 6,4 km/h (2 Bft) 100,00 %
13.06.2021 08:08 13,3 C 14,4 C 11,7 C 89 % 1027,9 hPa 0,0 l/m 2 min 0 min 340 W/m 3,2 km/h (1 Bft) 100,00 %
13.06.2021 08:06 13,1 C 14,4 C 11,7 C 90 % 1027,8 hPa 0,0 l/m 2 min 0 min 334 W/m 3,2 km/h (1 Bft) 100,00 %
13.06.2021 08:04 13,1 C 13,9 C 11,7 C 90 % 1027,8 hPa 0,0 l/m 2 min 0 min 328 W/m 3,2 km/h (1 Bft) 100,00 %
13.06.2021 08:02 12,9 C 13,9 C 11,7 C 90 % 1027,8 hPa 0,0 l/m 2 min 0 min 321 W/m 3,2 km/h (1 Bft) 100,00 %
13.06.2021 08:00 12,8 C 13,9 C 11,7 C 91 % 1027,7 hPa 0,0 l/m 2 min 0 min 314 W/m 3,2 km/h (1 Bft) 100,00 %
13.06.2021 07:58 12,7 C 13,3 C 11,1 C 91 % 1027,8 hPa 0,0 l/m 2 min 0 min 307 W/m 3,2 km/h (1 Bft) 100,00 %
13.06.2021 07:56 12,6 C 13,3 C 11,1 C 92 % 1027,7 hPa 0,0 l/m 2 min 0 min 301 W/m 9,7 km/h (2 Bft) 100,00 %
13.06.2021 07:54 12,5 C 13,3 C 11,1 C 92 % 1027,7 hPa 0,0 l/m 2 min 0 min 293 W/m 3,2 km/h (1 Bft) 97,87 %
13.06.2021 07:52 12,4 C 13,3 C 11,1 C 92 % 1027,7 hPa 0,0 l/m 2 min 0 min 280 W/m 6,4 km/h (2 Bft) 100,00 %
13.06.2021 07:50 12,4 C 13,3 C 11,1 C 92 % 1027,8 hPa 0,0 l/m 2 min 0 min 276 W/m 6,4 km/h (2 Bft) 100,00 %
13.06.2021 07:48 12,3 C 13,3 C 11,1 C 92 % 1027,8 hPa 0,0 l/m 2 min 0 min 269 W/m 6,4 km/h (2 Bft) 97,87 %
13.06.2021 07:46 12,3 C 12,8 C 11,1 C 93 % 1027,8 hPa 0,0 l/m 2 min 0 min 266 W/m 6,4 km/h (2 Bft) 97,87 %
13.06.2021 07:44 12,2 C 12,8 C 11,1 C 93 % 1027,7 hPa 0,0 l/m 2 min 0 min 261 W/m 9,7 km/h (2 Bft) 100,00 %
13.06.2021 07:42 12,2 C 12,8 C 11,1 C 93 % 1027,7 hPa 0,0 l/m 2 min 0 min 257 W/m 6,4 km/h (2 Bft) 97,87 %
13.06.2021 07:40 12,1 C 12,8 C 11,1 C 93 % 1027,7 hPa 0,0 l/m 2 min 0 min 238 W/m 0,0 km/h (0 Bft) 97,87 %
13.06.2021 07:38 12,1 C 12,8 C 11,1 C 93 % 1027,7 hPa 0,0 l/m 0 min 0 min 114 W/m 0,0 km/h (0 Bft) 97,87 %
13.06.2021 07:36 12,0 C 12,8 C 10,6 C 93 % 1027,6 hPa 0,0 l/m 0 min 0 min 48 W/m 0,0 km/h (0 Bft) 97,87 %
13.06.2021 07:34 12,0 C 12,2 C 10,6 C 93 % 1027,6 hPa 0,0 l/m 0 min 0 min 44 W/m 0,0 km/h (0 Bft) 97,87 %
13.06.2021 07:32 12,0 C 12,2 C 10,6 C 93 % 1027,6 hPa 0,0 l/m 0 min 0 min 44 W/m 0,0 km/h (0 Bft) 97,83 %
13.06.2021 07:30 12,0 C 12,2 C 10,6 C 93 % 1027,5 hPa 0,0 l/m 0 min 0 min 43 W/m 3,2 km/h (1 Bft) 97,87 %
13.06.2021 07:28 11,9 C 12,2 C 10,6 C 93 % 1027,6 hPa 0,0 l/m 0 min 0 min 42 W/m 0,0 km/h (0 Bft) 97,87 %
13.06.2021 07:26 11,9 C 12,2 C 10,6 C 93 % 1027,6 hPa 0,0 l/m 0 min 0 min 41 W/m 0,0 km/h (0 Bft) 95,74 %
13.06.2021 07:24 11,9 C 12,2 C 10,6 C 93 % 1027,5 hPa 0,0 l/m 0 min 0 min 40 W/m 0,0 km/h (0 Bft) 95,74 %
13.06.2021 07:22 11,9 C 11,7 C 10,6 C 93 % 1027,5 hPa 0,0 l/m 0 min 0 min 39 W/m 0,0 km/h (0 Bft) 95,74 %
13.06.2021 07:20 11,8 C 11,7 C 10,6 C 93 % 1027,5 hPa 0,0 l/m 0 min 0 min 39 W/m 0,0 km/h (0 Bft) 95,65 %
13.06.2021 07:18 11,8 C 11,7 C 10,6 C 93 % 1027,5 hPa 0,0 l/m 0 min 0 min 37 W/m 0,0 km/h (0 Bft) 95,74 %
13.06.2021 07:16 11,7 C 11,7 C 10,0 C 93 % 1027,5 hPa 0,0 l/m 0 min 0 min 37 W/m 0,0 km/h (0 Bft) 91,49 %
13.06.2021 07:14 11,6 C 11,7 C 10,0 C 93 % 1027,5 hPa 0,0 l/m 0 min 0 min 35 W/m 0,0 km/h (0 Bft) 93,62 %
13.06.2021 07:12 11,6 C 11,7 C 10,0 C 93 % 1027,5 hPa 0,0 l/m 0 min 0 min 35 W/m 0,0 km/h (0 Bft) 95,74 %
13.06.2021 07:10 11,5 C 11,7 C 10,0 C 93 % 1027,4 hPa 0,0 l/m 0 min 0 min 33 W/m 0,0 km/h (0 Bft) 95,74 %
13.06.2021 07:08 11,5 C 11,7 C 10,0 C 93 % 1027,4 hPa 0,0 l/m 0 min 0 min 33 W/m 0,0 km/h (0 Bft) 95,65 %
13.06.2021 07:06 11,5 C 11,1 C 10,0 C 93 % 1027,4 hPa 0,0 l/m 0 min 0 min 33 W/m 0,0 km/h (0 Bft) 95,74 %
13.06.2021 07:04 11,4 C 11,1 C 10,0 C 93 % 1027,4 hPa 0,0 l/m 0 min 0 min 33 W/m 0,0 km/h (0 Bft) 95,74 %
13.06.2021 07:02 11,4 C 11,1 C 9,5 C 93 % 1027,4 hPa 0,0 l/m 0 min 0 min 32 W/m 0,0 km/h (0 Bft) 93,62 %
13.06.2021 07:00 11,4 C 11,1 C 9,5 C 93 % 1027,4 hPa 0,0 l/m 0 min 0 min 32 W/m 0,0 km/h (0 Bft) 93,62 %
13.06.2021 06:58 11,3 C 11,1 C 9,5 C 93 % 1027,3 hPa 0,0 l/m 0 min 0 min 31 W/m 0,0 km/h (0 Bft) 97,96 %
13.06.2021 06:56 11,3 C 11,1 C 9,5 C 93 % 1027,3 hPa 0,0 l/m 0 min 0 min 30 W/m 0,0 km/h (0 Bft) 97,83 %
13.06.2021 06:54 11,2 C 11,1 C 9,5 C 93 % 1027,2 hPa 0,0 l/m 0 min 0 min 30 W/m 0,0 km/h (0 Bft) 97,87 %
13.06.2021 06:52 11,1 C 11,1 C 9,5 C 93 % 1027,2 hPa 0,0 l/m 0 min 0 min 30 W/m 0,0 km/h (0 Bft) 95,74 %
13.06.2021 06:50 11,1 C 11,1 C 9,5 C 93 % 1027,2 hPa 0,0 l/m 0 min 0 min 29 W/m 0,0 km/h (0 Bft) 89,36 %
13.06.2021 06:48 11,0 C 11,1 C 9,5 C 93 % 1027,2 hPa 0,0 l/m 0 min 0 min 28 W/m 0,0 km/h (0 Bft) 95,74 %
13.06.2021 06:46 11,0 C 10,6 C 9,5 C 93 % 1027,2 hPa 0,0 l/m 0 min 0 min 28 W/m 0,0 km/h (0 Bft) 95,74 %
13.06.2021 06:44 11,0 C 10,6 C 9,5 C 93 % 1027,2 hPa 0,0 l/m 0 min 0 min 27 W/m 0,0 km/h (0 Bft) 95,65 %
13.06.2021 06:42 10,9 C 10,6 C 9,5 C 93 % 1027,2 hPa 0,0 l/m 0 min 0 min 26 W/m 0,0 km/h (0 Bft) 95,74 %
13.06.2021 06:40 10,9 C 10,6 C 9,5 C 93 % 1027,1 hPa 0,0 l/m 0 min 0 min 26 W/m 0,0 km/h (0 Bft) 95,74 %
13.06.2021 06:38 10,9 C 10,6 C 9,5 C 93 % 1027,0 hPa 0,0 l/m 0 min 0 min 26 W/m 0,0 km/h (0 Bft) 95,74 %
13.06.2021 06:36 10,9 C 10,6 C 9,5 C 93 % 1027,0 hPa 0,0 l/m 0 min 0 min 25 W/m 0,0 km/h (0 Bft) 93,62 %
13.06.2021 06:34 10,8 C 10,6 C 8,9 C 93 % 1027,0 hPa 0,0 l/m 0 min 0 min 25 W/m 0,0 km/h (0 Bft) 94,83 %
13.06.2021 06:32 10,8 C 10,6 C 8,9 C 93 % 1027,0 hPa 0,0 l/m 0 min 0 min 25 W/m 0,0 km/h (0 Bft) 94,29 %
13.06.2021 06:30 10,8 C 10,6 C 8,9 C 93 % 1027,1 hPa 0,0 l/m 0 min 0 min 25 W/m 0,0 km/h (0 Bft) 95,74 %
13.06.2021 06:28 10,8 C 10,6 C 8,9 C 93 % 1027,1 hPa 0,0 l/m 0 min 0 min 23 W/m 0,0 km/h (0 Bft) 95,74 %
13.06.2021 06:26 10,8 C 10,6 C 8,9 C 93 % 1027,0 hPa 0,0 l/m 0 min 0 min 23 W/m 0,0 km/h (0 Bft) 93,62 %
13.06.2021 06:24 10,8 C 10,6 C 8,9 C 93 % 1027,0 hPa 0,0 l/m 0 min 0 min 23 W/m 0,0 km/h (0 Bft) 96,55 %
13.06.2021 06:22 10,7 C 10,0 C 8,9 C 93 % 1027,0 hPa 0,0 l/m 0 min 0 min 23 W/m 0,0 km/h (0 Bft) 94,29 %
13.06.2021 06:20 10,7 C 10,0 C 8,9 C 93 % 1026,9 hPa 0,0 l/m 0 min 0 min 21 W/m 0,0 km/h (0 Bft) 95,74 %
13.06.2021 06:18 10,7 C 10,0 C 8,9 C 92 % 1026,9 hPa 0,0 l/m 0 min 0 min 21 W/m 0,0 km/h (0 Bft) 95,74 %
13.06.2021 06:16 10,7 C 10,0 C 8,9 C 92 % 1026,9 hPa 0,0 l/m 0 min 0 min 21 W/m 0,0 km/h (0 Bft) 93,62 %
13.06.2021 06:14 10,7 C 10,0 C 8,9 C 92 % 1026,9 hPa 0,0 l/m 0 min 0 min 20 W/m 0,0 km/h (0 Bft) 94,83 %
13.06.2021 06:12 10,6 C 10,0 C 8,9 C 92 % 1026,9 hPa 0,0 l/m 0 min 0 min 19 W/m 0,0 km/h (0 Bft) 95,74 %
13.06.2021 06:10 10,6 C 10,0 C 8,9 C 92 % 1026,9 hPa 0,0 l/m 0 min 0 min 19 W/m 0,0 km/h (0 Bft) 95,74 %
13.06.2021 06:08 10,6 C 10,0 C 8,9 C 92 % 1026,9 hPa 0,0 l/m 0 min 0 min 18 W/m 0,0 km/h (0 Bft) 96,34 %
13.06.2021 06:04 10,6 C 10,0 C 8,4 C 92 % 1026,9 hPa 0,0 l/m 0 min 0 min 18 W/m 0,0 km/h (0 Bft) 95,74 %
13.06.2021 06:02 10,6 C 10,0 C 8,4 C 92 % 1026,9 hPa 0,0 l/m 0 min 0 min 16 W/m 0,0 km/h (0 Bft) 93,62 %
13.06.2021 06:00 10,6 C 10,0 C 8,4 C 92 % 1026,9 hPa 0,0 l/m 0 min 0 min 16 W/m 0,0 km/h (0 Bft) 95,74 %
13.06.2021 05:58 10,7 C 10,0 C 8,4 C 92 % 1026,8 hPa 0,0 l/m 0 min 0 min 16 W/m 0,0 km/h (0 Bft) 93,48 %
13.06.2021 05:56 10,7 C 10,0 C 8,4 C 92 % 1026,8 hPa 0,0 l/m 0 min 0 min 14 W/m 0,0 km/h (0 Bft) 95,74 %
13.06.2021 05:54 10,6 C 10,0 C 8,4 C 92 % 1026,7 hPa 0,0 l/m 0 min 0 min 14 W/m 0,0 km/h (0 Bft) 95,74 %
13.06.2021 05:52 10,6 C 10,0 C 8,4 C 92 % 1026,7 hPa 0,0 l/m 0 min 0 min 12 W/m 0,0 km/h (0 Bft) 95,74 %
13.06.2021 05:50 10,6 C 10,0 C 8,4 C 91 % 1026,8 hPa 0,0 l/m 0 min 0 min 12 W/m 0,0 km/h (0 Bft) 95,74 %
13.06.2021 05:48 10,7 C 10,0 C 8,4 C 91 % 1026,7 hPa 0,0 l/m 0 min 0 min 12 W/m 0,0 km/h (0 Bft) 97,87 %
13.06.2021 05:46 10,7 C 10,0 C 8,4 C 91 % 1026,7 hPa 0,0 l/m 0 min 0 min 12 W/m 0,0 km/h (0 Bft) 97,83 %
13.06.2021 05:44 10,7 C 10,0 C 8,4 C 91 % 1026,7 hPa 0,0 l/m 0 min 0 min 11 W/m 0,0 km/h (0 Bft) 97,87 %
13.06.2021 05:42 10,7 C 10,0 C 8,4 C 91 % 1026,7 hPa 0,0 l/m 0 min 0 min 11 W/m 0,0 km/h (0 Bft) 97,87 %
13.06.2021 05:40 10,7 C 10,0 C 8,4 C 91 % 1026,6 hPa 0,0 l/m 0 min 0 min 10 W/m 0,0 km/h (0 Bft) 97,87 %
13.06.2021 05:38 10,7 C 10,0 C 8,4 C 91 % 1026,7 hPa 0,0 l/m 0 min 0 min 9 W/m 0,0 km/h (0 Bft) 97,87 %
13.06.2021 05:36 10,8 C 10,0 C 8,4 C 91 % 1026,7 hPa 0,0 l/m 0 min 0 min 9 W/m 0,0 km/h (0 Bft) 97,87 %
13.06.2021 05:34 10,8 C 10,0 C 8,4 C 91 % 1026,6 hPa 0,0 l/m 0 min 0 min 7 W/m 0,0 km/h (0 Bft) 97,83 %
13.06.2021 05:32 10,8 C 10,0 C 8,4 C 91 % 1026,6 hPa 0,0 l/m 0 min 0 min 7 W/m 0,0 km/h (0 Bft) 97,87 %
13.06.2021 05:30 10,8 C 10,0 C 8,4 C 91 % 1026,6 hPa 0,0 l/m 0 min 0 min 7 W/m 0,0 km/h (0 Bft) 97,87 %
13.06.2021 05:28 10,8 C 10,0 C 8,4 C 91 % 1026,7 hPa 0,0 l/m 0 min 0 min 5 W/m 0,0 km/h (0 Bft) 97,87 %
13.06.2021 05:26 10,9 C 10,0 C 8,4 C 91 % 1026,6 hPa 0,0 l/m 0 min 0 min 5 W/m 0,0 km/h (0 Bft) 95,74 %
13.06.2021 05:24 10,9 C 10,0 C 8,4 C 91 % 1026,6 hPa 0,0 l/m 0 min 0 min 5 W/m 0,0 km/h (0 Bft) 95,74 %
13.06.2021 05:22 10,9 C 10,0 C 8,4 C 91 % 1026,5 hPa 0,0 l/m 0 min 0 min 5 W/m 0,0 km/h (0 Bft) 95,65 %
13.06.2021 05:20 10,9 C 10,0 C 8,4 C 91 % 1026,5 hPa 0,0 l/m 0 min 0 min 0 W/m 0,0 km/h (0 Bft) 95,74 %
13.06.2021 05:18 10,9 C 10,0 C 8,4 C 91 % 1026,5 hPa 0,0 l/m 0 min 0 min 0 W/m 0,0 km/h (0 Bft) 91,49 %
13.06.2021 05:16 11,0 C 10,0 C 8,4 C 91 % 1026,5 hPa 0,0 l/m 0 min 0 min 0 W/m 0,0 km/h (0 Bft) 95,74 %
13.06.2021 05:14 11,0 C 10,0 C 8,4 C 91 % 1026,5 hPa 0,0 l/m 0 min 0 min 0 W/m 0,0 km/h (0 Bft) 95,74 %
13.06.2021 05:12 11,0 C 10,0 C 8,4 C 91 % 1026,5 hPa 0,0 l/m 0 min 0 min 0 W/m 0,0 km/h (0 Bft) 93,62 %
13.06.2021 05:10 11,0 C 10,0 C 8,9 C 91 % 1026,5 hPa 0,0 l/m 0 min 0 min 0 W/m 0,0 km/h (0 Bft) 95,65 %
13.06.2021 05:08 11,0 C 10,0 C 8,9 C 91 % 1026,5 hPa 0,0 l/m 0 min 0 min 0 W/m 0,0 km/h (0 Bft) 95,74 %
13.06.2021 05:06 11,0 C 10,0 C 8,9 C 90 % 1026,4 hPa 0,0 l/m 0 min 0 min 0 W/m 0,0 km/h (0 Bft) 93,62 %
13.06.2021 05:04 11,0 C 10,0 C 8,9 C 90 % 1026,4 hPa 0,0 l/m 0 min 0 min 0 W/m 0,0 km/h (0 Bft) 97,87 %
13.06.2021 05:02 11,1 C 10,0 C 8,9 C 90 % 1026,4 hPa 0,0 l/m 0 min 0 min 0 W/m 0,0 km/h (0 Bft) 93,62 %
13.06.2021 05:00 11,1 C 10,0 C 8,9 C 90 % 1026,4 hPa 0,0 l/m 0 min 0 min 0 W/m 0,0 km/h (0 Bft) 95,74 %
13.06.2021 04:58 11,1 C 10,0 C 8,9 C 90 % 1026,4 hPa 0,0 l/m 0 min 0 min 0 W/m 0,0 km/h (0 Bft) 95,65 %
13.06.2021 04:56 11,1 C 10,0 C 8,9 C 90 % 1026,4 hPa 0,0 l/m 0 min 0 min 0 W/m 0,0 km/h (0 Bft) 95,74 %
13.06.2021 04:54 11,1 C 10,0 C 8,9 C 90 % 1026,4 hPa 0,0 l/m 0 min 0 min 0 W/m 0,0 km/h (0 Bft) 97,87 %
13.06.2021 04:52 11,2 C 10,0 C 8,9 C 90 % 1026,3 hPa 0,0 l/m 0 min 0 min 0 W/m 0,0 km/h (0 Bft) 97,87 %
13.06.2021 04:50 11,2 C 10,0 C 8,9 C 90 % 1026,4 hPa 0,0 l/m 0 min 0 min 0 W/m 0,0 km/h (0 Bft) 97,87 %
13.06.2021 04:48 11,2 C 10,0 C 8,9 C 90 % 1026,3 hPa 0,0 l/m 0 min 0 min 0 W/m 0,0 km/h (0 Bft) 100,00 %
13.06.2021 04:46 11,3 C 10,0 C 8,9 C 89 % 1026,4 hPa 0,0 l/m 0 min 0 min 0 W/m 0,0 km/h (0 Bft) 100,00 %
13.06.2021 04:44 11,3 C 10,0 C 8,9 C 89 % 1026,4 hPa 0,0 l/m 0 min 0 min 0 W/m 0,0 km/h (0 Bft) 100,00 %
13.06.2021 04:42 11,3 C 10,0 C 8,9 C 89 % 1026,3 hPa 0,0 l/m 0 min 0 min 0 W/m 0,0 km/h (0 Bft) 97,87 %
13.06.2021 04:40 11,3 C 10,0 C 8,9 C 89 % 1026,4 hPa 0,0 l/m 0 min 0 min 0 W/m 0,0 km/h (0 Bft) 97,87 %
13.06.2021 04:38 11,4 C 10,0 C 8,9 C 89 % 1026,4 hPa 0,0 l/m 0 min 0 min 0 W/m 0,0 km/h (0 Bft) 100,00 %
13.06.2021 04:36 11,4 C 10,0 C 8,9 C 89 % 1026,4 hPa 0,0 l/m 0 min 0 min 0 W/m 0,0 km/h (0 Bft) 97,83 %
13.06.2021 04:34 11,4 C 10,0 C 8,9 C 89 % 1026,4 hPa 0,0 l/m 0 min 0 min 0 W/m 0,0 km/h (0 Bft) 100,00 %
13.06.2021 04:32 11,4 C 10,6 C 8,9 C 89 % 1026,4 hPa 0,0 l/m 0 min 0 min 0 W/m 0,0 km/h (0 Bft) 100,00 %
13.06.2021 04:30 11,5 C 10,6 C 8,9 C 89 % 1026,4 hPa 0,0 l/m 0 min 0 min 0 W/m 0,0 km/h (0 Bft) 100,00 %
13.06.2021 04:28 11,5 C 10,6 C 8,9 C 89 % 1026,4 hPa 0,0 l/m 0 min 0 min 0 W/m 0,0 km/h (0 Bft) 100,00 %
13.06.2021 04:26 11,5 C 10,6 C 8,9 C 89 % 1026,3 hPa 0,0 l/m 0 min 0 min 0 W/m 0,0 km/h (0 Bft) 100,00 %
13.06.2021 04:24 11,5 C 10,6 C 8,9 C 89 % 1026,3 hPa 0,0 l/m 0 min 0 min 0 W/m 0,0 km/h (0 Bft) 100,00 %
13.06.2021 04:22 11,5 C 10,6 C 8,9 C 89 % 1026,4 hPa 0,0 l/m 0 min 0 min 0 W/m 0,0 km/h (0 Bft) 97,87 %
13.06.2021 04:20 11,6 C 10,6 C 8,9 C 89 % 1026,4 hPa 0,0 l/m 0 min 0 min 0 W/m 0,0 km/h (0 Bft) 100,00 %
13.06.2021 04:18 11,6 C 10,6 C 8,9 C 88 % 1026,3 hPa 0,0 l/m 0 min 0 min 0 W/m 0,0 km/h (0 Bft) 97,87 %
13.06.2021 04:16 11,6 C 10,6 C 8,9 C 88 % 1026,4 hPa 0,0 l/m 0 min 0 min 0 W/m 3,2 km/h (1 Bft) 100,00 %
13.06.2021 04:14 11,7 C 10,6 C 8,9 C 89 % 1026,3 hPa 0,0 l/m 0 min 0 min 0 W/m 3,2 km/h (1 Bft) 100,00 %
13.06.2021 04:12 11,7 C 10,6 C 8,9 C 88 % 1026,2 hPa 0,0 l/m 0 min 0 min 0 W/m 3,2 km/h (1 Bft) 100,00 %
13.06.2021 04:10 11,7 C 10,6 C 8,9 C 88 % 1026,3 hPa 0,0 l/m 0 min 0 min 0 W/m 0,0 km/h (0 Bft) 100,00 %
13.06.2021 04:08 11,7 C 10,6 C 8,9 C 88 % 1026,3 hPa 0,0 l/m 0 min 0 min 0 W/m 0,0 km/h (0 Bft) 100,00 %
13.06.2021 04:06 11,8 C 10,6 C 8,9 C 88 % 1026,2 hPa 0,0 l/m 0 min 0 min 0 W/m 0,0 km/h (0 Bft) 95,74 %
13.06.2021 04:04 11,8 C 10,6 C 8,9 C 88 % 1026,3 hPa 0,0 l/m 0 min 0 min 0 W/m 0,0 km/h (0 Bft) 97,87 %
13.06.2021 04:02 11,8 C 10,6 C 9,5 C 88 % 1026,3 hPa 0,0 l/m 0 min 0 min 0 W/m 0,0 km/h (0 Bft) 100,00 %
13.06.2021 04:00 11,8 C 10,6 C 9,5 C 88 % 1026,2 hPa 0,0 l/m 0 min 0 min 0 W/m 0,0 km/h (0 Bft) 95,45 %
13.06.2021 03:58 11,9 C 10,6 C 9,5 C 88 % 1026,2 hPa 0,0 l/m 0 min 0 min 0 W/m 0,0 km/h (0 Bft) 63,27 %
13.06.2021 03:56 11,9 C 10,6 C 9,5 C 88 % 1026,3 hPa 0,0 l/m 0 min 0 min 0 W/m 0,0 km/h (0 Bft) 100,00 %
13.06.2021 03:54 11,9 C 10,6 C 9,5 C 88 % 1026,3 hPa 0,0 l/m 0 min 0 min 0 W/m 0,0 km/h (0 Bft) 100,00 %
13.06.2021 03:52 11,9 C 10,6 C 9,5 C 88 % 1026,2 hPa 0,0 l/m 0 min 0 min 0 W/m 0,0 km/h (0 Bft) 100,00 %
13.06.2021 03:50 11,9 C 10,6 C 9,5 C 88 % 1026,3 hPa 0,0 l/m 0 min 0 min 0 W/m 3,2 km/h (1 Bft) 100,00 %
13.06.2021 03:48 12,0 C 11,1 C 9,5 C 88 % 1026,3 hPa 0,0 l/m 0 min 0 min 0 W/m 0,0 km/h (0 Bft) 100,00 %
13.06.2021 03:46 12,0 C 11,1 C 9,5 C 88 % 1026,3 hPa 0,0 l/m 0 min 0 min 0 W/m 3,2 km/h (1 Bft) 97,87 %
13.06.2021 03:44 12,0 C 11,1 C 9,5 C 88 % 1026,4 hPa 0,0 l/m 0 min 0 min 0 W/m 0,0 km/h (0 Bft) 100,00 %
13.06.2021 03:42 12,0 C 11,1 C 9,5 C 88 % 1026,3 hPa 0,0 l/m 0 min 0 min 0 W/m 0,0 km/h (0 Bft) 97,87 %
13.06.2021 03:40 12,1 C 11,1 C 9,5 C 87 % 1026,3 hPa 0,0 l/m 0 min 0 min 0 W/m 0,0 km/h (0 Bft) 100,00 %
13.06.2021 03:38 12,1 C 11,1 C 9,5 C 88 % 1026,3 hPa 0,0 l/m 0 min 0 min 0 W/m 3,2 km/h (1 Bft) 100,00 %
13.06.2021 03:36 12,1 C 11,1 C 9,5 C 88 % 1026,3 hPa 0,0 l/m 0 min 0 min 0 W/m 0,0 km/h (0 Bft) 100,00 %
13.06.2021 03:34 12,1 C 11,1 C 9,5 C 87 % 1026,3 hPa 0,0 l/m 0 min 0 min 0 W/m 0,0 km/h (0 Bft) 100,00 %
13.06.2021 03:32 12,1 C 11,1 C 9,5 C 87 % 1026,3 hPa 0,0 l/m 0 min 0 min 0 W/m 0,0 km/h (0 Bft) 100,00 %
13.06.2021 03:30 12,2 C 11,1 C 9,5 C 87 % 1026,3 hPa 0,0 l/m 0 min 0 min 0 W/m 0,0 km/h (0 Bft) 100,00 %
13.06.2021 03:28 12,2 C 11,1 C 9,5 C 87 % 1026,3 hPa 0,0 l/m 0 min 0 min 0 W/m 0,0 km/h (0 Bft) 100,00 %
13.06.2021 03:26 12,2 C 11,1 C 9,5 C 87 % 1026,3 hPa 0,0 l/m 0 min 0 min 0 W/m 3,2 km/h (1 Bft) 100,00 %
13.06.2021 03:24 12,3 C 11,1 C 9,5 C 87 % 1026,4 hPa 0,0 l/m 0 min 0 min 0 W/m 3,2 km/h (1 Bft) 100,00 %
13.06.2021 03:22 12,3 C 11,1 C 9,5 C 87 % 1026,4 hPa 0,0 l/m 0 min 0 min 0 W/m 0,0 km/h (0 Bft) 100,00 %
13.06.2021 03:20 12,3 C 11,1 C 9,5 C 87 % 1026,4 hPa 0,0 l/m 0 min 0 min 0 W/m 0,0 km/h (0 Bft) 100,00 %
13.06.2021 03:18 12,3 C 11,1 C 9,5 C 87 % 1026,3 hPa 0,0 l/m 0 min 0 min 0 W/m 0,0 km/h (0 Bft) 97,87 %
13.06.2021 03:16 12,4 C 11,1 C 9,5 C 87 % 1026,3 hPa 0,0 l/m 0 min 0 min 0 W/m 0,0 km/h (0 Bft) 97,87 %
13.06.2021 03:14 12,4 C 11,1 C 9,5 C 87 % 1026,3 hPa 0,0 l/m 0 min 0 min 0 W/m 0,0 km/h (0 Bft) 97,83 %
13.06.2021 03:12 12,4 C 11,1 C 9,5 C 86 % 1026,3 hPa 0,0 l/m 0 min 0 min 0 W/m 0,0 km/h (0 Bft) 97,87 %
13.06.2021 03:10 12,5 C 11,1 C 9,5 C 86 % 1026,3 hPa 0,0 l/m 0 min 0 min 0 W/m 0,0 km/h (0 Bft) 97,87 %
13.06.2021 03:08 12,5 C 11,1 C 9,5 C 86 % 1026,3 hPa 0,0 l/m 0 min 0 min 0 W/m 0,0 km/h (0 Bft) 95,74 %
13.06.2021 03:06 12,5 C 11,1 C 9,5 C 86 % 1026,3 hPa 0,0 l/m 0 min 0 min 0 W/m 0,0 km/h (0 Bft) 95,74 %
13.06.2021 03:04 12,6 C 11,1 C 9,5 C 86 % 1026,3 hPa 0,0 l/m 0 min 0 min 0 W/m 3,2 km/h (1 Bft) 97,92 %
13.06.2021 03:02 12,6 C 11,7 C 9,5 C 86 % 1026,2 hPa 0,0 l/m 0 min 0 min 0 W/m 3,2 km/h (1 Bft) 97,83 %
13.06.2021 03:00 12,6 C 11,7 C 9,5 C 86 % 1026,3 hPa 0,0 l/m 0 min 0 min 0 W/m 0,0 km/h (0 Bft) 97,87 %
13.06.2021 02:58 12,6 C 11,7 C 10,0 C 86 % 1026,3 hPa 0,0 l/m 0 min 0 min 0 W/m 0,0 km/h (0 Bft) 95,74 %
13.06.2021 02:56 12,6 C 11,7 C 10,0 C 86 % 1026,3 hPa 0,0 l/m 0 min 0 min 0 W/m 0,0 km/h (0 Bft) 97,87 %
13.06.2021 02:54 12,7 C 11,7 C 10,0 C 86 % 1026,3 hPa 0,0 l/m 0 min 0 min 0 W/m 0,0 km/h (0 Bft) 97,87 %
13.06.2021 02:52 12,7 C 11,7 C 10,0 C 86 % 1026,3 hPa 0,0 l/m 0 min 0 min 0 W/m 0,0 km/h (0 Bft) 97,87 %
13.06.2021 02:50 12,8 C 11,7 C 10,0 C 86 % 1026,2 hPa 0,0 l/m 0 min 0 min 0 W/m 0,0 km/h (0 Bft) 95,65 %
13.06.2021 02:48 12,8 C 11,7 C 10,0 C 85 % 1026,1 hPa 0,0 l/m 0 min 0 min 0 W/m 0,0 km/h (0 Bft) 95,74 %
13.06.2021 02:46 12,8 C 11,7 C 10,0 C 85 % 1026,1 hPa 0,0 l/m 0 min 0 min 0 W/m 3,2 km/h (1 Bft) 95,74 %
13.06.2021 02:44 12,8 C 11,7 C 10,0 C 85 % 1026,1 hPa 0,0 l/m 0 min 0 min 0 W/m 0,0 km/h (0 Bft) 95,74 %
13.06.2021 02:42 12,9 C 11,7 C 10,0 C 85 % 1026,1 hPa 0,0 l/m 0 min 0 min 0 W/m 0,0 km/h (0 Bft) 93,62 %
13.06.2021 02:40 12,9 C 11,7 C 10,0 C 85 % 1026,1 hPa 0,0 l/m 0 min 0 min 0 W/m 0,0 km/h (0 Bft) 95,74 %
13.06.2021 02:38 12,9 C 11,7 C 10,0 C 85 % 1026,1 hPa 0,0 l/m 0 min 0 min 0 W/m 0,0 km/h (0 Bft) 97,83 %
13.06.2021 02:36 13,0 C 11,7 C 10,0 C 85 % 1026,1 hPa 0,0 l/m 0 min 0 min 0 W/m 0,0 km/h (0 Bft) 97,87 %
13.06.2021 02:34 13,0 C 11,7 C 10,0 C 85 % 1026,1 hPa 0,0 l/m 0 min 0 min 0 W/m 0,0 km/h (0 Bft) 95,74 %
13.06.2021 02:32 13,0 C 11,7 C 10,0 C 85 % 1026,1 hPa 0,0 l/m 0 min 0 min 0 W/m 0,0 km/h (0 Bft) 95,74 %
13.06.2021 02:30 13,0 C 12,2 C 10,0 C 85 % 1026,1 hPa 0,0 l/m 0 min 0 min 0 W/m 3,2 km/h (1 Bft) 95,74 %
13.06.2021 02:28 13,1 C 12,2 C 10,0 C 85 % 1026,2 hPa 0,0 l/m 0 min 0 min 0 W/m 0,0 km/h (0 Bft) 97,87 %
13.06.2021 02:26 13,1 C 12,2 C 10,0 C 84 % 1026,1 hPa 0,0 l/m 0 min 0 min 0 W/m 0,0 km/h (0 Bft) 95,65 %
13.06.2021 02:24 13,1 C 12,2 C 10,0 C 84 % 1026,1 hPa 0,0 l/m 0 min 0 min 0 W/m 0,0 km/h (0 Bft) 95,74 %
13.06.2021 02:22 13,1 C 12,2 C 10,0 C 84 % 1026,1 hPa 0,0 l/m 0 min 0 min 0 W/m 3,2 km/h (1 Bft) 97,87 %
13.06.2021 02:20 13,2 C 12,2 C 10,6 C 84 % 1026,1 hPa 0,0 l/m 0 min 0 min 0 W/m 3,2 km/h (1 Bft) 97,87 %
13.06.2021 02:18 13,2 C 12,2 C 10,6 C 84 % 1026,1 hPa 0,0 l/m 0 min 0 min 0 W/m 0,0 km/h (0 Bft) 97,87 %
13.06.2021 02:16 13,3 C 12,2 C 10,6 C 84 % 1026,1 hPa 0,0 l/m 0 min 0 min 0 W/m 0,0 km/h (0 Bft) 97,87 %
13.06.2021 02:14 13,3 C 12,2 C 10,6 C 84 % 1026,1 hPa 0,0 l/m 0 min 0 min 0 W/m 3,2 km/h (1 Bft) 95,65 %
13.06.2021 02:12 13,3 C 12,2 C 10,6 C 84 % 1026,1 hPa 0,0 l/m 0 min 0 min 0 W/m 0,0 km/h (0 Bft) 97,87 %
13.06.2021 02:10 13,3 C 12,2 C 10,6 C 84 % 1026,1 hPa 0,0 l/m 0 min 0 min 0 W/m 0,0 km/h (0 Bft) 95,74 %
13.06.2021 02:08 13,4 C 12,2 C 10,6 C 84 % 1026,1 hPa 0,0 l/m 0 min 0 min 0 W/m 0,0 km/h (0 Bft) 97,87 %
13.06.2021 02:06 13,4 C 12,2 C 10,6 C 84 % 1026,1 hPa 0,0 l/m 0 min 0 min 0 W/m 0,0 km/h (0 Bft) 97,87 %
13.06.2021 02:04 13,4 C 12,2 C 10,6 C 84 % 1026,1 hPa 0,0 l/m 0 min 0 min 0 W/m 0,0 km/h (0 Bft) 97,87 %
13.06.2021 02:02 13,4 C 12,2 C 10,6 C 84 % 1026,1 hPa 0,0 l/m 0 min 0 min 0 W/m 3,2 km/h (1 Bft) 97,83 %
13.06.2021 02:00 13,5 C 12,2 C 10,6 C 83 % 1026,1 hPa 0,0 l/m 0 min 0 min 0 W/m 3,2 km/h (1 Bft) 93,62 %
13.06.2021 01:58 13,5 C 12,2 C 10,6 C 83 % 1026,1 hPa 0,0 l/m 0 min 0 min 0 W/m 0,0 km/h (0 Bft) 97,87 %
13.06.2021 01:56 13,5 C 12,2 C 10,6 C 83 % 1026,1 hPa 0,0 l/m 0 min 0 min 0 W/m 0,0 km/h (0 Bft) 95,74 %
13.06.2021 01:54 13,5 C 12,2 C 10,6 C 83 % 1026,2 hPa 0,0 l/m 0 min 0 min 0 W/m 0,0 km/h (0 Bft) 97,87 %
13.06.2021 01:52 13,6 C 12,2 C 10,6 C 83 % 1026,2 hPa 0,0 l/m 0 min 0 min 0 W/m 0,0 km/h (0 Bft) 97,83 %
13.06.2021 01:50 13,6 C 12,2 C 10,6 C 83 % 1026,2 hPa 0,0 l/m 0 min 0 min 0 W/m 0,0 km/h (0 Bft) 97,87 %
13.06.2021 01:48 13,7 C 12,2 C 10,6 C 83 % 1026,2 hPa 0,0 l/m 0 min 0 min 0 W/m 0,0 km/h (0 Bft) 97,87 %
13.06.2021 01:46 13,7 C 12,2 C 10,6 C 83 % 1026,2 hPa 0,0 l/m 0 min 0 min 0 W/m 0,0 km/h (0 Bft) 97,87 %
13.06.2021 01:44 13,8 C 12,8 C 10,6 C 83 % 1026,2 hPa 0,0 l/m 0 min 0 min 0 W/m 0,0 km/h (0 Bft) 63,64 %
13.06.2021 01:42 13,8 C 12,8 C 10,6 C 83 % 1026,2 hPa 0,0 l/m 0 min 0 min 0 W/m 0,0 km/h (0 Bft) 87,23 %
13.06.2021 01:40 13,9 C 12,8 C 10,6 C 83 % 1026,2 hPa 0,0 l/m 0 min 0 min 0 W/m 0,0 km/h (0 Bft) 97,83 %
13.06.2021 01:38 13,9 C 12,8 C 10,6 C 83 % 1026,2 hPa 0,0 l/m 0 min 0 min 0 W/m 0,0 km/h (0 Bft) 97,87 %
13.06.2021 01:36 14,0 C 12,8 C 10,6 C 83 % 1026,1 hPa 0,0 l/m 0 min 0 min 0 W/m 0,0 km/h (0 Bft) 97,87 %
13.06.2021 01:34 14,0 C 12,8 C 10,6 C 82 % 1026,1 hPa 0,0 l/m 0 min 0 min 0 W/m 3,2 km/h (1 Bft) 100,00 %
13.06.2021 01:32 14,0 C 12,8 C 10,6 C 82 % 1026,1 hPa 0,0 l/m 0 min 0 min 0 W/m 3,2 km/h (1 Bft) 97,87 %
13.06.2021 01:30 14,1 C 12,8 C 10,6 C 82 % 1026,1 hPa 0,0 l/m 0 min 0 min 0 W/m 0,0 km/h (0 Bft) 97,87 %
13.06.2021 01:28 14,2 C 12,8 C 11,1 C 82 % 1026,1 hPa 0,0 l/m 0 min 0 min 0 W/m 0,0 km/h (0 Bft) 97,83 %
13.06.2021 01:26 14,2 C 12,8 C 11,1 C 82 % 1026,1 hPa 0,0 l/m 0 min 0 min 0 W/m 0,0 km/h (0 Bft) 100,00 %
13.06.2021 01:24 14,2 C 12,8 C 11,1 C 82 % 1026,1 hPa 0,0 l/m 0 min 0 min 0 W/m 0,0 km/h (0 Bft) 100,00 %
13.06.2021 01:22 14,2 C 12,8 C 11,1 C 82 % 1026,0 hPa 0,0 l/m 0 min 0 min 0 W/m 0,0 km/h (0 Bft) 100,00 %
13.06.2021 01:20 14,2 C 12,8 C 11,1 C 82 % 1026,0 hPa 0,0 l/m 0 min 0 min 0 W/m 0,0 km/h (0 Bft) 100,00 %
13.06.2021 01:18 14,2 C 13,3 C 11,1 C 81 % 1026,0 hPa 0,0 l/m 0 min 0 min 0 W/m 0,0 km/h (0 Bft) 100,00 %
13.06.2021 01:16 14,2 C 13,3 C 11,1 C 81 % 1026,0 hPa 0,0 l/m 0 min 0 min 0 W/m 0,0 km/h (0 Bft) 100,00 %
13.06.2021 01:14 14,3 C 13,3 C 11,1 C 81 % 1026,0 hPa 0,0 l/m 0 min 0 min 0 W/m 0,0 km/h (0 Bft) 100,00 %
13.06.2021 01:12 14,4 C 13,3 C 11,1 C 80 % 1025,9 hPa 0,0 l/m 0 min 0 min 0 W/m 0,0 km/h (0 Bft) 100,00 %
13.06.2021 01:10 14,4 C 13,3 C 11,1 C 80 % 1026,0 hPa 0,0 l/m 0 min 0 min 0 W/m 0,0 km/h (0 Bft) 100,00 %
13.06.2021 01:08 14,4 C 13,3 C 11,1 C 80 % 1025,9 hPa 0,0 l/m 0 min 0 min 0 W/m 0,0 km/h (0 Bft) 100,00 %
13.06.2021 01:06 14,5 C 13,3 C 11,1 C 80 % 1025,9 hPa 0,0 l/m 0 min 0 min 0 W/m 0,0 km/h (0 Bft) 100,00 %
13.06.2021 01:04 14,5 C 13,3 C 11,1 C 80 % 1025,9 hPa 0,0 l/m 0 min 0 min 0 W/m 0,0 km/h (0 Bft) 100,00 %
13.06.2021 01:02 14,5 C 13,3 C 11,7 C 80 % 1025,9 hPa 0,0 l/m 0 min 0 min 0 W/m 3,2 km/h (1 Bft) 97,87 %
13.06.2021 01:00 14,6 C 13,3 C 11,1 C 80 % 1025,9 hPa 0,0 l/m 0 min 0 min 0 W/m 3,2 km/h (1 Bft) 100,00 %
13.06.2021 00:58 14,6 C 13,9 C 11,7 C 80 % 1025,9 hPa 0,0 l/m 0 min 0 min 0 W/m 3,2 km/h (1 Bft) 97,87 %
13.06.2021 00:56 14,6 C 13,9 C 11,7 C 79 % 1025,9 hPa 0,0 l/m 0 min 0 min 0 W/m 3,2 km/h (1 Bft) 97,87 %
13.06.2021 00:54 14,7 C 13,9 C 11,7 C 79 % 1025,9 hPa 0,0 l/m 0 min 0 min 0 W/m 3,2 km/h (1 Bft) 97,87 %
13.06.2021 00:52 14,8 C 13,9 C 11,7 C 79 % 1025,9 hPa 0,0 l/m 0 min 0 min 0 W/m 6,4 km/h (2 Bft) 97,83 %
13.06.2021 00:50 14,8 C 13,9 C 11,7 C 79 % 1025,9 hPa 0,0 l/m 0 min 0 min 0 W/m 3,2 km/h (1 Bft) 97,87 %
13.06.2021 00:48 14,8 C 13,9 C 11,7 C 79 % 1025,8 hPa 0,0 l/m 0 min 0 min 0 W/m 6,4 km/h (2 Bft) 97,87 %
13.06.2021 00:46 14,8 C 13,9 C 11,7 C 79 % 1025,9 hPa 0,0 l/m 0 min 0 min 0 W/m 6,4 km/h (2 Bft) 97,87 %
13.06.2021 00:44 14,8 C 13,9 C 11,7 C 79 % 1025,9 hPa 0,0 l/m 0 min 0 min 0 W/m 3,2 km/h (1 Bft) 97,87 %
13.06.2021 00:42 14,8 C 13,9 C 11,7 C 79 % 1025,8 hPa 0,0 l/m 0 min 0 min 0 W/m 6,4 km/h (2 Bft) 97,87 %
13.06.2021 00:40 14,9 C 13,9 C 11,7 C 79 % 1025,8 hPa 0,0 l/m 0 min 0 min 0 W/m 6,4 km/h (2 Bft) 97,83 %
13.06.2021 00:38 14,9 C 13,9 C 11,7 C 79 % 1025,7 hPa 0,0 l/m 0 min 0 min 0 W/m 6,4 km/h (2 Bft) 97,87 %
13.06.2021 00:36 14,9 C 13,9 C 11,7 C 79 % 1025,7 hPa 0,0 l/m 0 min 0 min 0 W/m 3,2 km/h (1 Bft) 91,49 %
13.06.2021 00:34 14,9 C 13,9 C 11,7 C 79 % 1025,8 hPa 0,0 l/m 0 min 0 min 0 W/m 9,7 km/h (2 Bft) 97,87 %
13.06.2021 00:32 14,9 C 13,9 C 12,3 C 79 % 1025,8 hPa 0,0 l/m 0 min 0 min 0 W/m 3,2 km/h (1 Bft) 97,87 %
13.06.2021 00:30 14,9 C 13,9 C 11,7 C 79 % 1025,8 hPa 0,0 l/m 0 min 0 min 0 W/m 6,4 km/h (2 Bft) 97,87 %
13.06.2021 00:28 14,9 C 13,9 C 11,7 C 79 % 1025,8 hPa 0,0 l/m 0 min 0 min 0 W/m 6,4 km/h (2 Bft) 97,83 %
13.06.2021 00:26 14,9 C 13,9 C 11,7 C 79 % 1025,8 hPa 0,0 l/m 0 min 0 min 0 W/m 6,4 km/h (2 Bft) 97,87 %
13.06.2021 00:24 14,9 C 13,9 C 11,7 C 79 % 1025,8 hPa 0,0 l/m 0 min 0 min 0 W/m 3,2 km/h (1 Bft) 97,87 %
13.06.2021 00:22 15,0 C 13,9 C 11,7 C 79 % 1025,8 hPa 0,0 l/m 0 min 0 min 0 W/m 3,2 km/h (1 Bft) 97,87 %
13.06.2021 00:20 15,0 C 13,9 C 11,7 C 78 % 1025,7 hPa 0,0 l/m 0 min 0 min 0 W/m 9,7 km/h (2 Bft) 97,87 %
13.06.2021 00:18 15,0 C 13,9 C 11,7 C 78 % 1025,7 hPa 0,0 l/m 0 min 0 min 0 W/m 3,2 km/h (1 Bft) 95,74 %
13.06.2021 00:16 15,0 C 13,9 C 11,7 C 78 % 1025,7 hPa 0,0 l/m 0 min 0 min 0 W/m 3,2 km/h (1 Bft) 97,83 %
13.06.2021 00:14 15,1 C 13,9 C 11,7 C 78 % 1025,7 hPa 0,0 l/m 0 min 0 min 0 W/m 6,4 km/h (2 Bft) 97,87 %
13.06.2021 00:12 15,1 C 13,9 C 11,7 C 78 % 1025,6 hPa 0,0 l/m 0 min 0 min 0 W/m 3,2 km/h (1 Bft) 97,87 %
13.06.2021 00:10 15,2 C 13,9 C 11,7 C 78 % 1025,6 hPa 0,0 l/m 0 min 0 min 0 W/m 6,4 km/h (2 Bft) 97,87 %
13.06.2021 00:08 15,3 C 14,4 C 12,3 C 77 % 1025,6 hPa 0,0 l/m 0 min 0 min 0 W/m 3,2 km/h (1 Bft) 100,00 %
13.06.2021 00:07 15,3 C 14,4 C 12,3 C 77 % 1025,6 hPa 0,0 l/m 0 min 0 min 0 W/m 6,4 km/h (2 Bft) 98,59 %
13.06.2021 00:04 15,3 C 14,4 C 12,3 C 77 % 1025,5 hPa 0,0 l/m 0 min 0 min 0 W/m 9,7 km/h (2 Bft) 100,00 %
13.06.2021 00:02 15,4 C 14,4 C 12,3 C 77 % 1025,4 hPa 0,0 l/m 0 min 0 min 0 W/m 6,4 km/h (2 Bft) 100,00 %
13.06.2021 00:00 15,4 C 14,4 C 12,3 C 77 % 1025,4 hPa 0,0 l/m 0 min 0 min 0 W/m 6,4 km/h (2 Bft) 95,74 %
12.06.2021 23:58 15,4 C 14,4 C 12,3 C 77 % 1025,4 hPa 0,0 l/m 0 min 0 min 0 W/m 6,4 km/h (2 Bft) 100,00 %
12.06.2021 23:56 15,5 C 14,4 C 12,3 C 77 % 1025,3 hPa 0,0 l/m 0 min 0 min 0 W/m 6,4 km/h (2 Bft) 97,87 %
12.06.2021 23:54 15,5 C 14,4 C 12,3 C 77 % 1025,3 hPa 0,0 l/m 0 min 0 min 0 W/m 3,2 km/h (1 Bft) 100,00 %
12.06.2021 23:52 15,5 C 14,4 C 12,3 C 77 % 1025,3 hPa 0,0 l/m 0 min 0 min 0 W/m 6,4 km/h (2 Bft) 97,87 %
12.06.2021 23:50 15,5 C 14,4 C 12,3 C 77 % 1025,3 hPa 0,0 l/m 0 min 0 min 0 W/m 3,2 km/h (1 Bft) 97,87 %
12.06.2021 23:48 15,6 C 14,4 C 12,3 C 77 % 1025,3 hPa 0,0 l/m 0 min 0 min 0 W/m 3,2 km/h (1 Bft) 95,74 %
12.06.2021 23:46 15,6 C 14,4 C 12,3 C 77 % 1025,3 hPa 0,0 l/m 0 min 0 min 0 W/m 0,0 km/h (0 Bft) 97,87 %
12.06.2021 23:44 15,6 C 14,4 C 12,3 C 76 % 1025,2 hPa 0,0 l/m 0 min 0 min 0 W/m 3,2 km/h (1 Bft) 97,87 %
12.06.2021 23:42 15,6 C 14,4 C 12,3 C 76 % 1025,2 hPa 0,0 l/m 0 min 0 min 0 W/m 3,2 km/h (1 Bft) 97,83 %
12.06.2021 23:40 15,7 C 14,4 C 12,3 C 76 % 1025,2 hPa 0,0 l/m 0 min 0 min 0 W/m 3,2 km/h (1 Bft) 97,87 %
12.06.2021 23:38 15,7 C 14,4 C 12,3 C 76 % 1025,2 hPa 0,0 l/m 0 min 0 min 0 W/m 3,2 km/h (1 Bft) 97,87 %
12.06.2021 23:36 15,8 C 14,4 C 12,3 C 76 % 1025,2 hPa 0,0 l/m 0 min 0 min 0 W/m 3,2 km/h (1 Bft) 97,87 %
12.06.2021 23:34 15,8 C 15,0 C 12,8 C 76 % 1025,2 hPa 0,0 l/m 0 min 0 min 0 W/m 3,2 km/h (1 Bft) 97,87 %
12.06.2021 23:32 15,9 C 15,0 C 12,8 C 76 % 1025,1 hPa 0,0 l/m 0 min 0 min 0 W/m 3,2 km/h (1 Bft) 93,62 %
12.06.2021 23:30 15,9 C 14,4 C 12,8 C 75 % 1025,1 hPa 0,0 l/m 0 min 0 min 0 W/m 9,7 km/h (2 Bft) 97,83 %
12.06.2021 23:28 15,9 C 15,0 C 12,8 C 75 % 1025,1 hPa 0,0 l/m 0 min 0 min 0 W/m 9,7 km/h (2 Bft) 97,87 %
12.06.2021 23:26 16,0 C 15,0 C 12,8 C 75 % 1025,0 hPa 0,0 l/m 0 min 0 min 0 W/m 6,4 km/h (2 Bft) 97,92 %
12.06.2021 23:24 16,0 C 15,0 C 12,8 C 75 % 1025,0 hPa 0,0 l/m 0 min 0 min 0 W/m 6,4 km/h (2 Bft) 95,74 %
12.06.2021 23:22 16,0 C 15,0 C 12,8 C 75 % 1025,0 hPa 0,0 l/m 0 min 0 min 0 W/m 6,4 km/h (2 Bft) 93,62 %
12.06.2021 23:20 16,1 C 15,0 C 12,8 C 75 % 1025,0 hPa 0,0 l/m 0 min 0 min 0 W/m 9,7 km/h (2 Bft) 97,92 %
12.06.2021 23:18 16,1 C 15,0 C 12,8 C 75 % 1025,0 hPa 0,0 l/m 0 min 0 min 0 W/m 9,7 km/h (2 Bft) 95,65 %
12.06.2021 23:16 16,1 C 15,0 C 12,8 C 75 % 1025,0 hPa 0,0 l/m 0 min 0 min 0 W/m 6,4 km/h (2 Bft) 97,87 %
12.06.2021 23:14 16,2 C 15,0 C 12,8 C 75 % 1024,9 hPa 0,0 l/m 0 min 0 min 0 W/m 6,4 km/h (2 Bft) 97,87 %
12.06.2021 23:12 16,2 C 15,0 C 12,8 C 75 % 1024,9 hPa 0,0 l/m 0 min 0 min 0 W/m 12,9 km/h (3 Bft) 95,74 %
12.06.2021 23:10 16,3 C 15,0 C 12,8 C 75 % 1024,8 hPa 0,0 l/m 0 min 0 min 0 W/m 6,4 km/h (2 Bft) 95,74 %
12.06.2021 23:08 16,3 C 15,0 C 12,8 C 74 % 1024,8 hPa 0,0 l/m 0 min 0 min 0 W/m 9,7 km/h (2 Bft) 93,75 %
12.06.2021 23:06 16,4 C 15,0 C 12,8 C 74 % 1024,8 hPa 0,0 l/m 0 min 0 min 0 W/m 6,4 km/h (2 Bft) 95,65 %
12.06.2021 23:04 16,4 C 15,0 C 12,8 C 74 % 1024,8 hPa 0,0 l/m 0 min 0 min 0 W/m 9,7 km/h (2 Bft) 93,62 %
12.06.2021 23:02 16,5 C 15,0 C 12,8 C 73 % 1024,8 hPa 0,0 l/m 0 min 0 min 0 W/m 3,2 km/h (1 Bft) 95,74 %
12.06.2021 23:00 16,6 C 15,0 C 13,4 C 73 % 1024,8 hPa 0,0 l/m 0 min 0 min 0 W/m 6,4 km/h (2 Bft) 95,74 %
12.06.2021 22:58 16,6 C 15,6 C 13,4 C 73 % 1024,8 hPa 0,0 l/m 0 min 0 min 0 W/m 6,4 km/h (2 Bft) 95,74 %
12.06.2021 22:56 16,7 C 15,6 C 13,4 C 73 % 1024,8 hPa 0,0 l/m 0 min 0 min 0 W/m 3,2 km/h (1 Bft) 95,74 %
12.06.2021 22:54 16,8 C 15,6 C 13,4 C 72 % 1024,8 hPa 0,0 l/m 0 min 0 min 0 W/m 3,2 km/h (1 Bft) 95,65 %
12.06.2021 22:52 16,8 C 15,6 C 13,4 C 72 % 1024,7 hPa 0,0 l/m 0 min 0 min 0 W/m 3,2 km/h (1 Bft) 93,62 %
12.06.2021 22:50 16,9 C 15,6 C 13,4 C 72 % 1024,8 hPa 0,0 l/m 0 min 0 min 0 W/m 6,4 km/h (2 Bft) 95,74 %
12.06.2021 22:48 16,9 C 15,6 C 13,4 C 72 % 1024,7 hPa 0,0 l/m 0 min 0 min 0 W/m 6,4 km/h (2 Bft) 95,74 %
12.06.2021 22:46 17,0 C 15,6 C 13,4 C 72 % 1024,7 hPa 0,0 l/m 0 min 0 min 0 W/m 6,4 km/h (2 Bft) 93,62 %
12.06.2021 22:44 17,0 C 16,1 C 13,9 C 72 % 1024,7 hPa 0,0 l/m 0 min 0 min 0 W/m 9,7 km/h (2 Bft) 95,65 %
12.06.2021 22:42 17,0 C 16,1 C 13,9 C 71 % 1024,7 hPa 0,0 l/m 0 min 0 min 0 W/m 6,4 km/h (2 Bft) 95,74 %
12.06.2021 22:40 17,0 C 16,1 C 13,9 C 71 % 1024,6 hPa 0,0 l/m 0 min 0 min 0 W/m 6,4 km/h (2 Bft) 95,74 %
12.06.2021 22:38 17,1 C 16,1 C 13,9 C 71 % 1024,6 hPa 0,0 l/m 0 min 0 min 0 W/m 6,4 km/h (2 Bft) 97,87 %
12.06.2021 22:36 17,2 C 16,1 C 13,9 C 71 % 1024,5 hPa 0,0 l/m 0 min 0 min 0 W/m 9,7 km/h (2 Bft) 95,74 %
12.06.2021 22:34 17,3 C 16,1 C 13,9 C 71 % 1024,5 hPa 0,0 l/m 0 min 0 min 0 W/m 6,4 km/h (2 Bft) 93,62 %
12.06.2021 22:32 17,3 C 16,1 C 13,9 C 71 % 1024,6 hPa 0,0 l/m 0 min 0 min 0 W/m 6,4 km/h (2 Bft) 95,65 %
12.06.2021 22:30 17,3 C 16,1 C 13,9 C 71 % 1024,5 hPa 0,0 l/m 0 min 0 min 0 W/m 9,7 km/h (2 Bft) 93,62 %
12.06.2021 22:28 17,3 C 16,1 C 13,9 C 71 % 1024,5 hPa 0,0 l/m 0 min 0 min 0 W/m 9,7 km/h (2 Bft) 97,87 %
12.06.2021 22:26 17,3 C 16,1 C 13,9 C 71 % 1024,5 hPa 0,0 l/m 0 min 0 min 0 W/m 12,9 km/h (3 Bft) 97,87 %
12.06.2021 22:24 17,4 C 16,1 C 13,9 C 71 % 1024,4 hPa 0,0 l/m 0 min 0 min 0 W/m 6,4 km/h (2 Bft) 95,74 %
12.06.2021 22:22 17,4 C 16,7 C 13,9 C 71 % 1024,4 hPa 0,0 l/m 0 min 0 min 0 W/m 9,7 km/h (2 Bft) 93,62 %
12.06.2021 22:20 17,4 C 16,7 C 13,9 C 71 % 1024,4 hPa 0,0 l/m 0 min 0 min 0 W/m 6,4 km/h (2 Bft) 95,65 %
12.06.2021 22:18 17,5 C 16,7 C 13,9 C 71 % 1024,3 hPa 0,0 l/m 0 min 0 min 0 W/m 9,7 km/h (2 Bft) 95,74 %
12.06.2021 22:16 17,5 C 16,7 C 13,9 C 70 % 1024,3 hPa 0,0 l/m 0 min 0 min 0 W/m 9,7 km/h (2 Bft) 95,74 %
12.06.2021 22:14 17,5 C 16,7 C 14,5 C 71 % 1024,3 hPa 0,0 l/m 0 min 0 min 0 W/m 9,7 km/h (2 Bft) 95,74 %
12.06.2021 22:12 17,6 C 16,7 C 14,5 C 71 % 1024,2 hPa 0,0 l/m 0 min 0 min 0 W/m 12,9 km/h (3 Bft) 97,87 %
12.06.2021 22:10 17,6 C 16,7 C 14,5 C 70 % 1024,2 hPa 0,0 l/m 0 min 0 min 0 W/m 12,9 km/h (3 Bft) 97,87 %
12.06.2021 22:08 17,7 C 16,7 C 14,5 C 70 % 1024,2 hPa 0,0 l/m 0 min 0 min 0 W/m 6,4 km/h (2 Bft) 97,83 %
12.06.2021 22:06 17,8 C 16,7 C 14,5 C 70 % 1024,2 hPa 0,0 l/m 0 min 0 min 0 W/m 6,4 km/h (2 Bft) 100,00 %
12.06.2021 22:00 17,9 C 16,7 C 14,5 C 70 % 1024,1 hPa 0,0 l/m 0 min 0 min 4 W/m 9,7 km/h (2 Bft) 100,00 %
12.06.2021 21:55 18,0 C 16,7 C 14,5 C 69 % 1024,1 hPa 0,0 l/m 0 min 0 min 5 W/m 9,7 km/h (2 Bft) 100,00 %
12.06.2021 21:50 18,1 C 16,7 C 15,0 C 69 % 1024,1 hPa 0,0 l/m 0 min 0 min 6 W/m 16,1 km/h (3 Bft) 99,12 %
12.06.2021 21:45 18,1 C 17,2 C 15,0 C 68 % 1024,0 hPa 0,0 l/m 0 min 0 min 8 W/m 19,3 km/h (3 Bft) 99,12 %
12.06.2021 21:40 18,3 C 17,2 C 15,0 C 68 % 1023,9 hPa 0,0 l/m 0 min 0 min 11 W/m 16,1 km/h (3 Bft) 100,00 %
12.06.2021 21:35 18,4 C 17,2 C 15,0 C 68 % 1023,9 hPa 0,0 l/m 0 min 0 min 13 W/m 16,1 km/h (3 Bft) 93,86 %
12.06.2021 21:30 18,6 C 17,2 C 15,0 C 67 % 1023,8 hPa 0,0 l/m 0 min 0 min 16 W/m 35,4 km/h (5 Bft) 92,98 %
12.06.2021 21:25 18,8 C 17,8 C 15,6 C 66 % 1023,7 hPa 0,0 l/m 0 min 0 min 17 W/m 25,7 km/h (4 Bft) 100,00 %
12.06.2021 21:20 18,9 C 17,8 C 15,6 C 66 % 1023,6 hPa 0,0 l/m 0 min 0 min 19 W/m 19,3 km/h (3 Bft) 100,00 %
12.06.2021 21:15 19,0 C 17,8 C 15,6 C 65 % 1023,6 hPa 0,0 l/m 0 min 0 min 21 W/m 19,3 km/h (3 Bft) 100,00 %
12.06.2021 21:10 19,2 C 18,3 C 16,1 C 65 % 1023,5 hPa 0,0 l/m 0 min 0 min 21 W/m 16,1 km/h (3 Bft) 100,00 %
12.06.2021 21:05 19,4 C 18,3 C 16,1 C 65 % 1023,5 hPa 0,0 l/m 0 min 0 min 25 W/m 25,7 km/h (4 Bft) 100,00 %
12.06.2021 21:00 19,5 C 18,3 C 16,1 C 64 % 1023,5 hPa 0,0 l/m 0 min 0 min 27 W/m 16,1 km/h (3 Bft) 100,00 %
_ Min-Zeit 05:50 04:34 05:12 17:22 21:00 - - - - 23:46 14:22
Minimum _ 10,6 C 10,0 C 8,4 C 45 % 1023,5 hPa - - - - 0,0 km/h (0 Bft) 47,62 %
_ Max-Zeit 18:08 16:50 13:06 06:20 10:42 21:00 12:08 21:00 13:28 21:30 21:00
Maximum _ 26,0 C 31,7 C 33,9 C 93 % 1028,8 hPa 0,0 l/m 4 min 0 min 958 W/m 35,4 km/h
N (5 Bft)
100,00 %
Durchschnitt _ 18,2 C 19,0 C 16,9 C 68 % 1026,5 hPa #0,0 l/m #11:48 h #0 min. 550 W/m 7,0 km/h (2 Bft) 97,61 %
© 2021 W. Hausmann